FW6434 Weather Reports


time (UTC)temp
C
wind
direction
speed
KPH
gust
KPH
rain 1hr
cm
rain 24hr
cm
rain mn
cm
humidity
%
barometer
mb
20260903121222 23 205 1.6 1.6 0.00 0.00 0.00 64 1017.7
20260903121125 23 205 0.0 1.6 0.00 0.00 0.00 65 1017.5
20260903121059 23 199 0.0 1.6 0.00 0.00 0.00 64 1017.7
20260903121043 23 202 0.0 1.6 0.00 0.00 0.00 66 1017.5
20260903120723 23 198 0.0 1.6 0.00 0.00 0.00 65 1017.8
20260903120623 23 196 0.0 1.6 0.00 0.00 0.00 66 1017.6
20260903120522 23 202 0.0 1.6 0.00 0.00 0.00 65 1017.8
20260903120424 23 202 0.0 1.6 0.00 0.00 0.00 64 1017.7
20260903120323 23 202 0.0 1.6 0.00 0.00 0.00 63 1017.8
20260903120223 23 196 0.0 1.6 0.00 0.00 0.00 63 1017.8
20260903120124 23 195 0.0 1.6 0.00 0.00 0.00 62 1017.8
20260903120058 23 196 0.0 1.6 0.00 0.00 0.00 63 1017.8
20260903120043 23 202 0.0 1.6 0.00 0.00 0.00 62 1017.9
20260903115723 23 199 0.0 1.6 0.00 0.00 0.00 63 1017.8
20260903115622 23 201 0.0 1.6 0.00 0.00 0.00 63 1017.8
20260903115525 23 206 0.0 1.6 0.00 0.00 0.00 63 1017.9
20260903115423 23 196 0.0 1.6 0.00 0.00 0.00 64 1017.8
20260903115357 23 191 0.0 1.6 0.00 0.00 0.00 65 1017.9
20260903115335 23 201 0.0 1.6 0.00 0.00 0.00 64 1017.6
20260903115319 23 198 0.0 1.6 0.00 0.00 0.00 64 1017.8
20260903115043 23 196 0.0 1.6 0.00 0.00 0.00 64 1017.9
20260903114723 23 194 0.0 1.6 0.00 0.00 0.00 64 1017.8
20260903114623 23 200 0.0 1.6 0.00 0.00 0.00 64 1017.7
20260903114527 23 196 0.0 3.2 0.00 0.00 0.00 65 1017.8
20260903114522 23 175 0.0 0.0 0.00 0.00 0.00 65 1017.9
20260903114507 23 202 0.0 0.0 0.00 0.00 0.00 65 1017.9
20260903114450 23 198 0.0 3.2 0.00 0.00 0.00 64 1017.6
20260903114432 23 196 0.0 3.2 0.00 0.00 0.00 65 1017.8
20260903114200 23 199 0.0 3.2 0.00 0.00 0.00 65 1017.8
20260903114144 22 198 0.0 3.2 0.00 0.00 0.00 64 1017.8
20260903114127 22 199 0.0 3.2 0.00 0.00 0.00 64 1017.8
20260903113843 22 197 0.0 3.2 0.00 0.00 0.00 65 1017.8
20260903113523 22 201 0.0 3.2 0.00 0.00 0.00 65 1017.7
20260903113423 22 201 0.0 3.2 0.00 0.00 0.00 65 1018.0
20260903113323 22 192 0.0 3.2 0.00 0.00 0.00 65 1018.1
20260903113223 23 192 0.0 3.2 0.00 0.00 0.00 65 1018.0
20260903113124 23 198 0.0 3.2 0.00 0.00 0.00 66 1017.9
20260903113023 23 197 0.0 3.2 0.00 0.00 0.00 66 1017.9
20260903112924 23 201 0.0 3.2 0.00 0.00 0.00 64 1017.8
20260903112824 23 205 0.0 3.2 0.00 0.00 0.00 64 1017.8
20260903112723 23 182 0.0 3.2 0.00 0.00 0.00 65 1018.0
20260903112623 23 205 1.6 3.2 0.00 0.00 0.00 65 1018.0
20260903112610 22 199 0.0 3.2 0.00 0.00 0.00 65 1017.9
20260903112601 23 197 0.0 3.2 0.00 0.00 0.00 64 1018.0
20260903112545 23 230 1.6 3.2 0.00 0.00 0.00 64 1017.8
20260903112528 23 199 0.0 1.6 0.00 0.00 0.00 65 1018.0
20260903112305 23 194 0.0 1.6 0.00 0.00 0.00 65 1018.1
20260903112245 22 200 0.0 3.2 0.00 0.00 0.00 65 1018.0
20260903112008 22 195 0.0 3.2 0.00 0.00 0.00 64 1018.0
20260903111952 22 197 0.0 3.2 0.00 0.00 0.00 65 1018.0
20260903111933 22 199 0.0 3.2 0.00 0.00 0.00 65 1017.9
20260903111624 22 187 0.0 3.2 0.00 0.00 0.00 66 1018.0
20260903111523 22 198 0.0 3.2 0.00 0.00 0.00 66 1018.0
20260903111506 22 188 0.0 3.2 0.00 0.00 0.00 65 1017.8
20260903111451 22 203 0.0 3.2 0.00 0.00 0.00 66 1018.0
20260903111223 22 200 1.6 3.2 0.00 0.00 0.00 65 1018.1
20260903111123 22 216 0.0 1.6 0.00 0.00 0.00 66 1017.9
20260903111023 22 192 0.0 1.6 0.00 0.00 0.00 66 1018.0
20260903110923 22 197 0.0 1.6 0.00 0.00 0.00 66 1017.9
20260903110825 22 195 0.0 1.6 0.00 0.00 0.00 67 1017.8
20260903110723 22 180 0.0 1.6 0.00 0.00 0.00 66 1018.0
20260903110624 22 175 0.0 1.6 0.00 0.00 0.00 67 1018.0
20260903110523 22 192 0.0 1.6 0.00 0.00 0.00 65 1018.0
20260903110423 22 191 0.0 1.6 0.00 0.00 0.00 65 1018.0
20260903110328 23 197 0.0 3.2 0.00 0.00 0.00 64 1018.3
20260903110324 22 194 0.0 1.6 0.00 0.00 0.00 65 1018.0
20260903110301 23 185 0.0 1.6 0.00 0.00 0.00 65 1017.7
20260903110244 23 204 0.0 1.6 0.00 0.00 0.00 65 1017.9
20260903110228 23 203 0.0 1.6 0.00 0.00 0.00 65 1018.2
20260903110212 23 198 0.0 1.6 0.00 0.00 0.00 64 1018.0
20260903110156 23 198 0.0 1.6 0.00 0.00 0.00 64 1017.8
20260903105624 23 198 0.0 3.2 0.00 0.00 0.00 64 1018.1
20260903105559 23 203 0.0 3.2 0.00 0.00 0.00 63 1018.0
20260903105544 23 208 0.0 3.2 0.00 0.00 0.00 63 1018.2
20260903105224 23 198 0.0 3.2 0.00 0.00 0.00 66 1018.2
20260903105159 22 201 0.0 3.2 0.00 0.00 0.00 65 1018.2
20260903105143 22 194 0.0 3.2 0.00 0.00 0.00 65 1018.1
20260903104823 22 192 0.0 3.2 0.00 0.00 0.00 65 1018.1
20260903104735 23 255 1.6 1.6 0.00 0.00 0.00 64 1018.0
20260903104712 22 201 0.0 3.2 0.00 0.00 0.00 65 1018.4
20260903104708 23 195 0.0 11.3 0.00 0.00 0.00 61 1018.2
20260903104702 24 205 3.2 6.4 0.00 0.00 0.00 61 1018.3
20260903104658 25 201 0.0 4.8 0.00 0.00 0.00 61 1018.5
20260903104650 23 203 1.6 1.6 0.00 0.00 0.00 63 1018.0
20260903104634 23 127 0.0 1.6 0.00 0.00 0.00 63 1018.1
20260903104619 23 190 0.0 1.6 0.00 0.00 0.00 63 1018.2
20260903104603 23 191 0.0 1.6 0.00 0.00 0.00 62 1018.1
20260903104541 23 199 0.0 1.6 0.00 0.00 0.00 64 1018.0
20260903104524 23 195 0.0 1.6 0.00 0.00 0.00 64 1017.9
20260903104508 23 195 0.0 1.6 0.00 0.00 0.00 64 1018.1
20260903104004 23 189 0.0 1.6 0.00 0.00 0.00 65 1018.0
20260903103948 23 198 0.0 1.6 0.00 0.00 0.00 65 1018.2
20260903103932 23 176 1.6 1.6 0.00 0.00 0.00 64 1018.2
20260903103656 22 197 0.0 1.6 0.00 0.00 0.00 65 1017.8
20260903103633 22 194 0.0 1.6 0.00 0.00 0.00 64 1018.0
20260903103618 23 183 0.0 1.6 0.00 0.00 0.00 63 1017.9
20260903103602 23 171 0.0 1.6 0.00 0.00 0.00 63 1018.0
20260903103547 23 202 0.0 1.6 0.00 0.00 0.00 63 1018.4
20260903103531 23 200 0.0 1.6 0.00 0.00 0.00 63 1018.2
20260903103507 22 202 0.0 1.6 0.00 0.00 0.00 63 1018.2
20260903103231 22 198 0.0 3.2 0.00 0.00 0.00 65 1018.2
20260903103215 22 200 0.0 3.2 0.00 0.00 0.00 65 1018.1
20260903103159 22 201 0.0 3.2 0.00 0.00 0.00 65 1018.3
20260903103142 22 201 0.0 3.2 0.00 0.00 0.00 65 1018.4
20260903102916 22 192 0.0 3.2 0.00 0.00 0.00 65 1018.1
20260903102900 22 194 0.0 3.2 0.00 0.00 0.00 65 1018.1
20260903102844 23 184 0.0 6.4 0.00 0.00 0.00 63 1018.1
20260903102135 24 200 0.0 11.3 0.00 0.00 0.00 63 1018.3
20260903102119 24 207 0.0 11.3 0.00 0.00 0.00 60 1018.5
20260903102102 24 206 1.6 11.3 0.00 0.00 0.00 61 1018.7
20260903102046 23 205 0.0 11.3 0.00 0.00 0.00 62 1018.4
20260903101820 23 203 0.0 11.3 0.00 0.00 0.00 63 1018.7
20260903101804 23 201 0.0 11.3 0.00 0.00 0.00 62 1018.4
20260903101308 24 203 0.0 6.4 0.00 0.00 0.00 60 1018.2
20260903101039 24 203 0.0 6.4 0.00 0.00 0.00 60 1018.2
20260903101022 24 193 0.0 6.4 0.00 0.00 0.00 61 1018.2
20260903101006 24 203 1.6 6.4 0.00 0.00 0.00 61 1018.3
20260903100950 24 224 4.8 6.4 0.00 0.00 0.00 60 1018.0
20260903100934 24 222 1.6 6.4 0.00 0.00 0.00 60 1018.2
20260903100227 24 201 0.0 3.2 0.00 0.00 0.00 62 1018.2
20260903095951 24 196 1.6 3.2 0.00 0.00 0.00 60 1018.4
20260903095932 25 201 0.0 4.8 0.00 0.00 0.00 61 1018.5
20260903095623 25 218 0.0 4.8 0.00 0.00 0.00 58 1018.3
20260903095559 25 199 0.0 4.8 0.00 0.00 0.00 59 1018.7
20260903095543 25 204 0.0 4.8 0.00 0.00 0.00 60 1018.5
20260903095223 25 194 0.0 4.8 0.00 0.00 0.00 59 1018.9
20260903095122 25 199 0.0 4.8 0.00 0.00 0.00 60 1018.7
20260903095023 25 207 0.0 4.8 0.00 0.00 0.00 59 1018.4
20260903094923 24 223 1.6 4.8 0.00 0.00 0.00 59 1018.9
20260903094823 24 200 0.0 4.8 0.00 0.00 0.00 60 1018.8
20260903094725 24 201 0.0 3.2 0.00 0.00 0.00 62 1018.5
20260903094622 24 201 0.0 3.2 0.00 0.00 0.00 63 1018.8
20260903094527 23 201 0.0 3.2 0.00 0.00 0.00 62 1018.7
20260903094515 24 154 1.6 3.2 0.00 0.00 0.00 62 1018.7
20260903094506 23 187 0.0 3.2 0.00 0.00 0.00 61 1018.5
20260903094450 24 83 1.6 3.2 0.00 0.00 0.00 61 1018.7
20260903094432 24 154 1.6 3.2 0.00 0.00 0.00 62 1018.7
20260903094123 24 191 1.6 3.2 0.00 0.00 0.00 62 1018.7
20260903094024 24 196 0.0 3.2 0.00 0.00 0.00 62 1018.8
20260903093923 23 200 1.6 3.2 0.00 0.00 0.00 62 1018.8
20260903093824 23 199 0.0 4.8 0.00 0.00 0.00 62 1018.8
20260903093723 23 146 1.6 4.8 0.00 0.00 0.00 62 1018.7
20260903093623 23 130 1.6 4.8 0.00 0.00 0.00 61 1019.0
20260903093524 23 193 1.6 4.8 0.00 0.00 0.00 62 1018.5
20260903093424 23 200 0.0 4.8 0.00 0.00 0.00 62 1018.9
20260903093323 23 196 0.0 4.8 0.00 0.00 0.00 61 1019.0
20260903093223 23 205 0.0 4.8 0.00 0.00 0.00 61 1018.7
20260903093124 23 198 1.6 4.8 0.00 0.00 0.00 62 1018.8
20260903093022 23 199 0.0 4.8 0.00 0.00 0.00 64 1018.9
20260903093001 23 203 0.0 4.8 0.00 0.00 0.00 60 1018.9
20260903092946 24 218 4.8 4.8 0.00 0.00 0.00 59 1018.8
20260903092921 24 202 0.0 4.8 0.00 0.00 0.00 60 1018.8
20260903092905 24 203 0.0 4.8 0.00 0.00 0.00 60 1018.5
20260903092324 23 205 0.0 4.8 0.00 0.00 0.00 62 1019.0
20260903092223 23 202 0.0 4.8 0.00 0.00 0.00 62 1018.8
20260903092124 23 177 0.0 4.8 0.00 0.00 0.00 62 1018.9
20260903092058 23 199 0.0 4.8 0.00 0.00 0.00 62 1019.0
20260903092043 23 203 0.0 4.8 0.00 0.00 0.00 60 1019.1
20260903091723 24 225 3.2 4.8 0.00 0.00 0.00 59 1018.9
20260903091623 25 221 1.6 3.2 0.00 0.00 0.00 58 1018.8
20260903091601 25 197 0.0 3.2 0.00 0.00 0.00 60 1018.9
20260903091544 25 196 0.0 3.2 0.00 0.00 0.00 59 1019.1
20260903091528 25 201 0.0 3.2 0.00 0.00 0.00 58 1019.0
20260903091302 25 205 0.0 3.2 0.00 0.00 0.00 57 1019.3
20260903091245 25 212 0.0 3.2 0.00 0.00 0.00 57 1018.8
20260903090924 25 209 1.6 3.2 0.00 0.00 0.00 60 1018.9
20260903090823 24 208 0.0 1.6 0.00 0.00 0.00 59 1018.9
20260903090723 24 198 0.0 1.6 0.00 0.00 0.00 58 1018.8
20260903090624 24 200 0.0 1.6 0.00 0.00 0.00 59 1018.9
20260903090601 23 199 0.0 1.6 0.00 0.00 0.00 61 1019.1
20260903090545 23 199 0.0 1.6 0.00 0.00 0.00 62 1019.1
20260903090223 23 162 1.6 1.6 0.00 0.00 0.00 62 1019.0
20260903090123 23 202 0.0 1.6 0.00 0.00 0.00 61 1019.0
20260903090023 23 199 0.0 1.6 0.00 0.00 0.00 62 1018.7
20260903085923 24 201 0.0 1.6 0.00 0.00 0.00 61 1019.1
20260903085823 24 204 0.0 1.6 0.00 0.00 0.00 60 1019.0
20260903085723 24 202 0.0 1.6 0.00 0.00 0.00 59 1019.1
20260903085623 23 198 0.0 1.6 0.00 0.00 0.00 60 1019.1
20260903085523 23 207 0.0 1.6 0.00 0.00 0.00 59 1019.1
20260903085505 23 203 0.0 0.0 0.00 0.00 0.00 58 1019.0
20260903085450 23 201 0.0 0.0 0.00 0.00 0.00 61 1019.1
20260903085223 23 202 0.0 0.0 0.00 0.00 0.00 62 1019.1
20260903085159 23 195 0.0 0.0 0.00 0.00 0.00 62 1019.0
20260903085143 23 204 0.0 0.0 0.00 0.00 0.00 63 1019.0
20260903084823 23 199 0.0 0.0 0.00 0.00 0.00 63 1019.3
20260903084722 22 199 0.0 0.0 0.00 0.00 0.00 65 1019.2
20260903084227 22 202 0.0 3.2 0.00 0.00 0.00 65 1019.1
20260903083906 22 204 1.6 3.2 0.00 0.00 0.00 62 1019.1
20260903083809 22 199 0.0 3.2 0.00 0.00 0.00 63 1019.1
20260903083727 22 196 1.6 3.2 0.00 0.00 0.00 62 1019.1
20260903083707 22 202 0.0 3.2 0.00 0.00 0.00 62 1019.2
20260903083608 22 202 0.0 3.2 0.00 0.00 0.00 62 1019.2
20260903083507 22 201 0.0 3.2 0.00 0.00 0.00 63 1019.2
20260903083451 22 197 0.0 3.2 0.00 0.00 0.00 66 1019.2
20260903083435 22 201 0.0 3.2 0.00 0.00 0.00 66 1019.2
20260903083420 23 203 0.0 3.2 0.00 0.00 0.00 66 1019.2
20260903083143 22 202 0.0 1.6 0.00 0.00 0.00 65 1019.3
20260903083126 22 203 0.0 1.6 0.00 0.00 0.00 65 1019.0
20260903082808 22 201 0.0 1.6 0.00 0.00 0.00 67 1019.3
20260903082741 22 203 0.0 1.6 0.00 0.00 0.00 67 1019.3
20260903082706 22 196 0.0 1.6 0.00 0.00 0.00 68 1019.0
20260903082608 22 148 1.6 1.6 0.00 0.00 0.00 67 1019.4
20260903082507 22 187 0.0 1.6 0.00 0.00 0.00 66 1019.4
20260903082408 22 166 0.0 1.6 0.00 0.00 0.00 66 1019.1
20260903082307 22 191 1.6 1.6 0.00 0.00 0.00 66 1019.2
20260903082252 22 198 0.0 1.6 0.00 0.00 0.00 66 1019.2
20260903082244 22 200 0.0 1.6 0.00 0.00 0.00 66 1019.4
20260903082228 22 196 0.0 1.6 0.00 0.00 0.00 67 1019.3
20260903081943 22 200 0.0 1.6 0.00 0.00 0.00 68 1019.2
20260903081928 22 199 0.0 1.6 0.00 0.00 0.00 67 1019.2
20260903081913 22 201 0.0 1.6 0.00 0.00 0.00 67 1019.2
20260903081903 22 200 0.0 1.6 0.00 0.00 0.00 67 1019.4
20260903081847 22 191 0.0 1.6 0.00 0.00 0.00 68 1019.2
20260903081351 22 194 0.0 1.6 0.00 0.00 0.00 67 1019.1
20260903081336 22 198 0.0 1.6 0.00 0.00 0.00 67 1019.1
20260903081329 22 199 0.0 1.6 0.00 0.00 0.00 67 1019.2
20260903081007 22 196 0.0 1.6 0.00 0.00 0.00 66 1019.2
20260903080907 22 198 0.0 1.6 0.00 0.00 0.00 67 1019.1
20260903080807 22 198 0.0 1.6 0.00 0.00 0.00 68 1019.3
20260903080739 22 200 0.0 1.6 0.00 0.00 0.00 69 1019.3
20260903080707 22 200 0.0 1.6 0.00 0.00 0.00 69 1019.2
20260903080643 22 200 0.0 1.6 0.00 0.00 0.00 70 1019.1
20260903080627 22 207 0.0 1.6 0.00 0.00 0.00 70 1019.2
20260903080612 21 201 0.0 1.6 0.00 0.00 0.00 72 1019.4
20260903080557 21 200 0.0 1.6 0.00 0.00 0.00 72 1019.3
20260903080542 21 192 0.0 1.6 0.00 0.00 0.00 71 1019.3
20260903080008 21 181 1.6 1.6 0.00 0.00 0.00 71 1019.4
20260903075907 21 191 1.6 1.6 0.00 0.00 0.00 72 1019.1
20260903075809 21 177 1.6 3.2 0.00 0.00 0.00 72 1019.3
20260903075728 21 175 0.0 4.8 0.00 0.00 0.00 73 1019.3
20260903075706 21 204 0.0 6.4 0.00 0.00 0.00 73 1019.3
20260903075607 21 197 1.6 6.4 0.00 0.00 0.00 72 1019.2
20260903075507 22 196 0.0 6.4 0.00 0.00 0.00 72 1019.3
20260903075406 22 203 0.0 6.4 0.00 0.00 0.00 71 1019.3
20260903075307 22 199 0.0 6.4 0.00 0.00 0.00 70 1019.4
20260903075227 22 205 0.0 6.4 0.00 0.00 0.00 70 1019.4
20260903075208 22 204 0.0 6.4 0.00 0.00 0.00 71 1019.4
20260903075106 21 207 0.0 6.4 0.00 0.00 0.00 71 1019.3
20260903075007 21 203 1.6 6.4 0.00 0.00 0.00 70 1019.4
20260903074914 21 203 0.0 6.4 0.00 0.00 0.00 71 1019.0
20260903074807 22 216 3.2 6.4 0.00 0.00 0.00 71 1019.0
20260903074727 22 217 6.4 6.4 0.00 0.00 0.00 71 1019.3
20260903074707 22 208 3.2 4.8 0.00 0.00 0.00 71 1019.3
20260903074643 22 200 0.0 3.2 0.00 0.00 0.00 71 1019.3
20260903074628 22 176 0.0 3.2 0.00 0.00 0.00 69 1019.2
20260903074308 22 208 0.0 3.2 0.00 0.00 0.00 70 1019.0
20260903074227 22 199 0.0 3.2 0.00 0.00 0.00 70 1019.0
20260903074207 22 199 0.0 3.2 0.00 0.00 0.00 70 1019.2
20260903074106 22 200 0.0 3.2 0.00 0.00 0.00 71 1019.2
20260903074023 22 201 0.0 3.2 0.00 0.00 0.00 71 1019.3
20260903074018 22 218 1.6 3.2 0.00 0.00 0.00 72 1019.4
20260903074002 22 202 0.0 3.2 0.00 0.00 0.00 72 1019.1
20260903073946 22 218 0.0 3.2 0.00 0.00 0.00 72 1019.3
20260903073707 22 198 0.0 3.2 0.00 0.00 0.00 71 1019.2
20260903073607 22 200 0.0 3.2 0.00 0.00 0.00 72 1019.3
20260903073506 22 194 0.0 3.2 0.00 0.00 0.00 71 1019.2
20260903073408 22 200 0.0 3.2 0.00 0.00 0.00 71 1019.2
20260903073307 22 200 0.0 3.2 0.00 0.00 0.00 71 1019.2
20260903073228 22 201 0.0 3.2 0.00 0.00 0.00 71 1019.2
20260903073207 22 204 1.6 3.2 0.00 0.00 0.00 70 1019.3
20260903073132 22 199 0.0 3.2 0.00 0.00 0.00 71 1019.3
20260903073116 22 207 1.6 1.6 0.00 0.00 0.00 70 1019.1
20260903073101 22 200 0.0 1.6 0.00 0.00 0.00 71 1019.2
20260903072828 22 200 0.0 6.4 0.00 0.00 0.00 70 1018.9
20260903072817 22 200 0.0 6.4 0.00 0.00 0.00 71 1019.2
20260903072524 21 199 0.0 6.4 0.00 0.00 0.00 73 1019.2
20260903072517 21 198 0.0 6.4 0.00 0.00 0.00 72 1019.1
20260903072501 21 199 0.0 6.4 0.00 0.00 0.00 73 1019.1
20260903072446 21 200 0.0 6.4 0.00 0.00 0.00 73 1019.2
20260903072155 21 196 0.0 6.4 0.00 0.00 0.00 73 1019.2
20260903072055 21 205 0.0 6.4 0.00 0.00 0.00 74 1019.2
20260903071956 21 198 0.0 6.4 0.00 0.00 0.00 74 1019.2
20260903071855 20 199 0.0 6.4 0.00 0.00 0.00 74 1019.0
20260903071828 20 205 3.2 6.4 0.00 0.00 0.00 74 1018.9
20260903071815 20 243 1.6 4.8 0.00 0.00 0.00 75 1018.9
20260903071804 20 196 0.0 4.8 0.00 0.00 0.00 76 1019.2
20260903071444 20 202 0.0 4.8 0.00 0.00 0.00 76 1019.1
20260903071343 20 208 1.6 4.8 0.00 0.00 0.00 75 1019.3
20260903071243 20 202 0.0 4.8 0.00 0.00 0.00 77 1019.0
20260903071227 20 198 0.0 4.8 0.00 0.00 0.00 77 1019.0
20260903071143 19 199 0.0 4.8 0.00 0.00 0.00 77 1019.2
20260903071043 19 195 1.6 4.8 0.00 0.00 0.00 77 1019.2
20260903070942 20 203 1.6 4.8 0.00 0.00 0.00 76 1019.3
20260903070843 20 198 1.6 4.8 0.00 0.00 0.00 76 1019.1
20260903070743 20 202 1.6 4.8 0.00 0.00 0.00 76 1019.0
20260903070727 20 197 0.0 4.8 0.00 0.00 0.00 76 1019.0
20260903070644 20 206 1.6 4.8 0.00 0.00 0.00 76 1019.0
20260903070543 20 207 3.2 4.8 0.00 0.00 0.00 75 1019.0
20260903070443 20 224 1.6 3.2 0.00 0.00 0.00 75 1019.2
20260903070344 20 204 1.6 4.8 0.00 0.00 0.00 75 1019.1
20260903070244 21 195 1.6 4.8 0.00 0.00 0.00 75 1018.8
20260903070227 21 199 0.0 4.8 0.00 0.00 0.00 75 1018.8
20260903070143 21 200 0.0 4.8 0.00 0.00 0.00 76 1019.2
20260903070119 20 196 0.0 4.8 0.00 0.00 0.00 75 1019.1
20260903070103 20 192 0.0 4.8 0.00 0.00 0.00 76 1018.9
20260903065816 20 209 0.0 4.8 0.00 0.00 0.00 75 1019.1
20260903065804 20 201 0.0 4.8 0.00 0.00 0.00 76 1019.0
20260903065518 20 202 0.0 4.8 0.00 0.00 0.00 76 1019.1
20260903065501 20 221 3.2 4.8 0.00 0.00 0.00 76 1019.0
20260903065446 20 202 0.0 4.8 0.00 0.00 0.00 77 1019.0
20260903065434 20 199 0.0 4.8 0.00 0.00 0.00 77 1019.0
20260903065203 20 219 3.2 4.8 0.00 0.00 0.00 75 1019.2
20260903064921 20 190 0.0 4.8 0.00 0.00 0.00 75 1018.9
20260903064906 20 206 0.0 3.2 0.00 0.00 0.00 75 1019.0
20260903064854 20 208 0.0 3.2 0.00 0.00 0.00 75 1019.0
20260903064841 20 199 0.0 3.2 0.00 0.00 0.00 76 1019.0
20260903064605 20 208 0.0 6.4 0.00 0.00 0.00 76 1019.2
20260903064243 20 203 1.6 6.4 0.00 0.00 0.00 77 1018.9
20260903064227 20 198 0.0 6.4 0.00 0.00 0.00 77 1018.9
20260903064142 20 210 0.0 6.4 0.00 0.00 0.00 78 1019.2
20260903064043 20 198 0.0 6.4 0.00 0.00 0.00 78 1019.0
20260903063943 20 204 0.0 6.4 0.00 0.00 0.00 78 1019.0
20260903063843 19 196 0.0 6.4 0.00 0.00 0.00 79 1019.0
20260903063744 19 198 0.0 6.4 0.00 0.00 0.00 79 1018.9
20260903063727 20 198 0.0 6.4 0.00 0.00 0.00 79 1018.9
20260903063643 20 200 4.8 6.4 0.00 0.00 0.00 78 1019.2
20260903063619 20 204 0.0 4.8 0.00 0.00 0.00 78 1019.0
20260903063604 20 201 0.0 4.8 0.00 0.00 0.00 78 1019.0
20260903063257 18 187 0.0 0.0 0.00 0.00 0.00 84 1019.2
20260903063250 20 228 4.8 6.4 0.00 0.00 0.00 77 1019.1
20260903063238 20 216 3.2 6.4 0.00 0.00 0.00 77 1019.1
20260903063228 20 196 0.0 6.4 0.00 0.00 0.00 78 1019.0
20260903063213 19 192 0.0 6.4 0.00 0.00 0.00 78 1018.9
20260903062937 19 201 0.0 6.4 0.00 0.00 0.00 79 1018.9
20260903062921 19 206 0.0 6.4 0.00 0.00 0.00 79 1018.8
20260903062909 19 215 0.0 6.4 0.00 0.00 0.00 79 1018.8
20260903062857 19 201 1.6 6.4 0.00 0.00 0.00 79 1019.0
20260903062622 19 210 4.8 6.4 0.00 0.00 0.00 79 1018.9
20260903062606 19 201 0.0 3.2 0.00 0.00 0.00 79 1018.9
20260903062551 19 202 0.0 3.2 0.00 0.00 0.00 79 1019.0
20260903062539 19 202 0.0 3.2 0.00 0.00 0.00 79 1019.0
20260903062308 19 215 0.0 3.2 0.00 0.00 0.00 79 1019.1
20260903062027 20 203 0.0 3.2 0.00 0.00 0.00 79 1018.9
20260903062000 20 205 0.0 1.6 0.00 0.00 0.00 78 1019.1
20260903061947 20 202 0.0 1.6 0.00 0.00 0.00 79 1019.1
20260903061712 19 107 0.0 0.0 0.00 0.00 0.00 80 1019.1
20260903061657 19 194 0.0 0.0 0.00 0.00 0.00 81 1019.0
20260903061424 19 194 0.0 0.0 0.00 0.00 0.00 81 1019.1
20260903061152 18 194 0.0 0.0 0.00 0.00 0.00 82 1019.3
20260903061137 18 121 0.0 0.0 0.00 0.00 0.00 82 1018.9
20260903061120 18 191 0.0 0.0 0.00 0.00 0.00 83 1019.2
20260903061105 18 191 0.0 0.0 0.00 0.00 0.00 84 1019.2
20260903060836 18 191 0.0 0.0 0.00 0.00 0.00 84 1019.3
20260903060822 18 193 0.0 0.0 0.00 0.00 0.00 85 1019.3
20260903060243 17 193 0.0 0.0 0.00 0.00 0.00 88 1019.2
20260903060227 17 192 0.0 0.0 0.00 0.00 0.00 88 1019.2
20260903060143 17 193 0.0 0.0 0.00 0.00 0.00 89 1019.3
20260903060120 17 193 0.0 0.0 0.00 0.00 0.00 89 1019.2
20260903060104 16 191 0.0 0.0 0.00 0.00 0.00 89 1019.3
20260903055727 16 107 0.0 0.0 0.00 0.00 0.00 91 1019.5
20260903055643 16 194 0.0 0.0 0.00 0.00 0.00 92 1019.3
20260903055555 16 191 0.0 0.0 0.00 0.00 0.00 92 1019.3
20260903055540 15 191 0.0 0.0 0.00 0.00 0.00 92 1019.2
20260903055523 15 190 0.0 0.0 0.00 0.00 0.00 92 1019.3
20260903055507 15 186 0.0 0.0 0.00 0.00 0.00 92 1019.2
20260903055455 15 186 0.0 0.0 0.00 0.00 0.00 92 1019.2
20260903055444 15 181 0.0 0.0 0.00 0.00 0.00 93 1019.2
20260903055209 15 179 0.0 0.0 0.00 0.00 0.00 93 1019.1
20260903055153 15 190 0.0 0.0 0.00 0.00 0.00 93 1019.3
20260903054920 15 198 0.0 0.0 0.00 0.00 0.00 94 1019.0
20260903054908 15 201 0.0 0.0 0.00 0.00 0.00 94 1019.3
20260903054632 15 201 0.0 0.0 0.00 0.00 0.00 95 1019.2
20260903054616 15 201 0.0 0.0 0.00 0.00 0.00 96 1019.2
20260903054350 15 201 0.0 0.0 0.00 0.00 0.00 96 1019.1
20260903054031 15 200 0.0 0.0 0.00 0.00 0.00 97 1019.3
20260903053931 15 200 0.0 0.0 0.00 0.00 0.00 97 1019.2
20260903053831 15 200 0.0 0.0 0.00 0.00 0.00 97 1019.0
20260903053731 15 200 0.0 0.0 0.00 0.00 0.00 97 1019.1
20260903053715 15 200 0.0 0.0 0.00 0.00 0.00 97 1019.1
20260903053631 15 200 0.0 0.0 0.00 0.00 0.00 97 1019.2
20260903053607 15 200 0.0 0.0 0.00 0.00 0.00 97 1018.9
20260903053551 15 200 0.0 0.0 0.00 0.00 0.00 98 1019.1
20260903053232 14 200 0.0 0.0 0.00 0.00 0.00 98 1019.3
20260903053215 14 200 0.0 0.0 0.00 0.00 0.00 98 1019.3
20260903053131 14 200 0.0 0.0 0.00 0.00 0.00 98 1019.0
20260903053031 14 200 0.0 0.0 0.00 0.00 0.00 98 1019.3
20260903052931 14 200 0.0 0.0 0.00 0.00 0.00 98 1019.3
20260903052831 13 201 0.0 0.0 0.00 0.00 0.00 98 1019.2
20260903052731 13 201 0.0 0.0 0.00 0.00 0.00 98 1019.2
20260903052715 13 201 0.0 0.0 0.00 0.00 0.00 98 1019.2
20260903052631 13 201 0.0 0.0 0.00 0.00 0.00 98 1018.9
20260903052531 13 201 0.0 0.0 0.00 0.00 0.00 98 1019.3
20260903052511 13 201 0.0 0.0 0.00 0.00 0.00 98 1019.1
20260903052503 13 201 0.0 0.0 0.00 0.00 0.00 98 1019.0
20260903052447 13 201 0.0 0.0 0.00 0.00 0.00 98 1019.0
20260903052432 13 201 0.0 0.0 0.00 0.00 0.00 98 1019.1
20260903052130 13 201 0.0 0.0 0.00 0.00 0.00 98 1019.0
20260903052031 13 201 0.0 0.0 0.00 0.00 0.00 98 1019.1
20260903051931 13 201 0.0 0.0 0.00 0.00 0.00 98 1019.0
20260903051831 13 201 0.0 0.0 0.00 0.00 0.00 98 1019.2
20260903051716 13 201 0.0 0.0 0.00 0.00 0.00 98 1018.9
20260903051632 13 201 0.0 0.0 0.00 0.00 0.00 98 1019.1
20260903051608 13 201 0.0 0.0 0.00 0.00 0.00 98 1018.8
20260903051600 13 201 0.0 0.0 0.00 0.00 0.00 98 1019.1
20260903051543 13 201 0.0 0.0 0.00 0.00 0.00 98 1019.0
20260903051528 13 201 0.0 0.0 0.00 0.00 0.00 98 1019.3
20260903051257 13 201 0.0 0.0 0.00 0.00 0.00 98 1018.9
20260903051246 13 201 0.0 0.0 0.00 0.00 0.00 98 1018.9
20260903051230 13 201 0.0 0.0 0.00 0.00 0.00 98 1019.0
20260903051214 13 201 0.0 0.0 0.00 0.00 0.00 98 1018.9
20260903051157 13 201 0.0 0.0 0.00 0.00 0.00 98 1018.8
20260903050707 13 201 0.0 0.0 0.00 0.00 0.00 98 1018.9
20260903050651 13 201 0.0 1.6 0.00 0.00 0.00 98 1018.7
20260903050331 13 201 0.0 1.6 0.00 0.00 0.00 98 1019.1
20260903050216 13 201 0.0 1.6 0.00 0.00 0.00 98 1018.9
20260903050131 13 202 0.0 1.6 0.00 0.00 0.00 98 1018.9
20260903050034 13 202 0.0 1.6 0.00 0.00 0.00 98 1018.9
20260903045930 13 203 0.0 1.6 0.00 0.00 0.00 98 1018.8
20260903045831 13 206 0.0 1.6 0.00 0.00 0.00 98 1018.7
20260903045717 13 208 0.0 1.6 0.00 0.00 0.00 98 1018.7
20260903045707 13 208 0.0 1.6 0.00 0.00 0.00 98 1018.9
20260903045651 13 209 0.0 1.6 0.00 0.00 0.00 98 1018.7
20260903045330 13 205 1.6 1.6 0.00 0.00 0.00 98 1018.4
20260903045231 13 204 1.6 1.6 0.00 0.00 0.00 98 1018.8
20260903045215 13 200 0.0 1.6 0.00 0.00 0.00 98 1018.8
20260903045131 13 192 0.0 0.0 0.00 0.00 0.00 98 1018.5
20260903045032 13 192 0.0 0.0 0.00 0.00 0.00 98 1018.5
20260903044931 13 191 0.0 0.0 0.00 0.00 0.00 98 1018.8
20260903044831 13 191 0.0 0.0 0.00 0.00 0.00 98 1018.5
20260903044811 13 191 0.0 0.0 0.00 0.00 0.00 98 1018.7
20260903044749 13 191 0.0 0.0 0.00 0.00 0.00 98 1018.3
20260903044739 13 191 0.0 0.0 0.00 0.00 0.00 98 1018.7
20260903044723 13 191 0.0 0.0 0.00 0.00 0.00 98 1018.4
20260903044447 13 191 0.0 0.0 0.00 0.00 0.00 98 1018.7
20260903044431 13 191 0.0 0.0 0.00 0.00 0.00 98 1018.7
20260903044131 13 191 0.0 0.0 0.00 0.00 0.00 98 1018.8
20260903044031 13 191 0.0 0.0 0.00 0.00 0.00 98 1018.4
20260903044007 13 191 0.0 0.0 0.00 0.00 0.00 98 1018.5
20260903043950 13 191 0.0 0.0 0.00 0.00 0.00 98 1018.5
20260903043715 13 192 0.0 0.0 0.00 0.00 0.00 98 1018.5
20260903043657 13 192 0.0 0.0 0.00 0.00 0.00 98 1018.4
20260903043641 13 193 0.0 0.0 0.00 0.00 0.00 98 1018.4
20260903043625 13 193 0.0 0.0 0.00 0.00 0.00 98 1018.4
20260903043401 13 193 0.0 0.0 0.00 0.00 0.00 98 1018.4
20260903043346 13 194 0.0 0.0 0.00 0.00 0.00 98 1018.7
20260903043334 13 193 0.0 0.0 0.00 0.00 0.00 98 1018.7
20260903043324 13 194 0.0 0.0 0.00 0.00 0.00 98 1018.5
20260903043100 13 194 0.0 0.0 0.00 0.00 0.00 98 1018.8
20260903043045 13 194 0.0 0.0 0.00 0.00 0.00 98 1018.5
20260903043029 13 194 0.0 0.0 0.00 0.00 0.00 98 1018.5
20260903043014 13 194 0.0 0.0 0.00 0.00 0.00 98 1018.7
20260903043000 13 194 0.0 0.0 0.00 0.00 0.00 98 1018.7
20260903042949 13 194 0.0 0.0 0.00 0.00 0.00 97 1018.5
20260903042933 13 194 0.0 0.0 0.00 0.00 0.00 97 1018.5
20260903042657 13 194 0.0 0.0 0.00 0.00 0.00 97 1018.7
20260903042211 13 194 0.0 0.0 0.00 0.00 0.00 97 1018.5
20260903042156 13 195 0.0 0.0 0.00 0.00 0.00 97 1018.4
20260903042140 13 195 0.0 0.0 0.00 0.00 0.00 97 1018.5
20260903041859 13 188 0.0 0.0 0.00 0.00 0.00 97 1018.5
20260903041846 13 199 0.0 0.0 0.00 0.00 0.00 97 1018.5
20260903041532 13 196 0.0 0.0 0.00 0.00 0.00 97 1018.7
20260903041512 13 196 0.0 0.0 0.00 0.00 0.00 97 1018.7
20260903041456 13 196 0.0 0.0 0.00 0.00 0.00 97 1018.5
20260903041214 13 195 0.0 0.0 0.00 0.00 0.00 96 1018.8
20260903041131 13 194 0.0 0.0 0.00 0.00 0.00 96 1018.5
20260903041031 13 194 0.0 0.0 0.00 0.00 0.00 96 1018.7
20260903040930 13 194 0.0 0.0 0.00 0.00 0.00 96 1018.5
20260903040830 13 194 0.0 0.0 0.00 0.00 0.00 96 1018.5
20260903040715 13 194 0.0 0.0 0.00 0.00 0.00 96 1018.5
20260903040630 13 194 0.0 0.0 0.00 0.00 0.00 96 1018.7
20260903040530 13 194 0.0 0.0 0.00 0.00 0.00 96 1018.7
20260903040431 13 194 0.0 0.0 0.00 0.00 0.00 96 1018.5
20260903040331 13 194 0.0 0.0 0.00 0.00 0.00 96 1018.7
20260903040231 13 193 0.0 0.0 0.00 0.00 0.00 96 1018.7
20260903040130 13 194 0.0 0.0 0.00 0.00 0.00 96 1018.7
20260903040030 13 194 0.0 0.0 0.00 0.00 0.00 96 1018.5
20260903035931 13 194 0.0 0.0 0.00 0.00 0.00 96 1018.5
20260903035831 13 193 0.0 0.0 0.00 0.00 0.00 95 1018.5
20260903035718 13 194 0.0 0.0 0.00 0.00 0.00 95 1018.7
20260903035618 13 193 0.0 0.0 0.00 0.00 0.00 95 1018.5
20260903035521 13 195 0.0 0.0 0.00 0.00 0.00 95 1018.5
20260903035511 13 195 0.0 0.0 0.00 0.00 0.00 95 1018.7
20260903035502 13 195 0.0 0.0 0.00 0.00 0.00 95 1018.7
20260903035446 13 195 0.0 0.0 0.00 0.00 0.00 95 1018.7
20260903035428 13 195 0.0 0.0 0.00 0.00 0.00 95 1018.7
20260903035118 13 195 0.0 0.0 0.00 0.00 0.00 95 1018.3
20260903035018 13 193 0.0 0.0 0.00 0.00 0.00 95 1018.7
20260903034918 13 190 0.0 0.0 0.00 0.00 0.00 95 1018.5
20260903034819 13 190 0.0 0.0 0.00 0.00 0.00 95 1018.5
20260903034718 13 190 0.0 0.0 0.00 0.00 0.00 95 1018.5
20260903034618 13 190 0.0 0.0 0.00 0.00 0.00 95 1018.7
20260903034601 13 187 0.0 3.2 0.00 0.00 0.00 94 1018.5
20260903034552 13 189 0.0 0.0 0.00 0.00 0.00 94 1018.4
20260903034536 13 186 0.0 3.2 0.00 0.00 0.00 94 1018.5
20260903034521 13 187 0.0 3.2 0.00 0.00 0.00 94 1018.4
20260903034503 13 187 0.0 3.2 0.00 0.00 0.00 94 1018.5
20260903034239 13 187 0.0 3.2 0.00 0.00 0.00 94 1018.4
20260903033918 14 187 0.0 3.2 0.00 0.00 0.00 94 1018.7
20260903033818 14 186 0.0 3.2 0.00 0.00 0.00 94 1018.4
20260903033718 14 185 0.0 3.2 0.00 0.00 0.00 94 1018.0
20260903033618 14 185 0.0 3.2 0.00 0.00 0.00 94 1018.3
20260903033521 14 184 1.6 3.2 0.00 0.00 0.00 94 1018.9
20260903033511 13 153 1.6 1.6 0.00 0.00 0.00 95 1018.5
20260903033501 14 160 0.0 1.6 0.00 0.00 0.00 94 1018.4
20260903033445 14 174 1.6 1.6 0.00 0.00 0.00 95 1018.7
20260903033428 13 153 1.6 1.6 0.00 0.00 0.00 95 1018.5
20260903033118 13 177 0.0 1.6 0.00 0.00 0.00 94 1018.3
20260903033020 14 158 1.6 1.6 0.00 0.00 0.00 94 1018.2
20260903032918 14 177 0.0 1.6 0.00 0.00 0.00 94 1018.1
20260903032818 14 186 0.0 1.6 0.00 0.00 0.00 94 1018.2
20260903032718 14 186 0.0 1.6 0.00 0.00 0.00 94 1018.4
20260903032618 14 185 0.0 1.6 0.00 0.00 0.00 94 1018.4
20260903032553 14 189 0.0 1.6 0.00 0.00 0.00 94 1018.4
20260903032537 14 186 0.0 1.6 0.00 0.00 0.00 94 1018.4
20260903032218 14 181 0.0 1.6 0.00 0.00 0.00 93 1018.5
20260903032146 14 186 0.0 1.6 0.00 0.00 0.00 93 1018.3
20260903032130 14 182 0.0 1.6 0.00 0.00 0.00 93 1018.3
20260903032114 14 190 0.0 1.6 0.00 0.00 0.00 93 1018.7
20260903032058 14 186 0.0 1.6 0.00 0.00 0.00 93 1018.4
20260903032034 14 165 0.0 1.6 0.00 0.00 0.00 93 1018.7
20260903032018 14 191 0.0 0.0 0.00 0.00 0.00 93 1018.8
20260903031218 14 190 0.0 1.6 0.00 0.00 0.00 93 1018.5
20260903031118 14 189 0.0 1.6 0.00 0.00 0.00 93 1018.9
20260903031018 14 189 0.0 1.6 0.00 0.00 0.00 92 1018.8
20260903030918 14 189 0.0 1.6 0.00 0.00 0.00 92 1018.8
20260903030902 14 188 0.0 1.6 0.00 0.00 0.00 92 1018.4
20260903030838 14 191 0.0 1.6 0.00 0.00 0.00 92 1018.7
20260903030518 14 186 0.0 1.6 0.00 0.00 0.00 92 1018.7
20260903030418 14 192 0.0 3.2 0.00 0.00 0.00 92 1018.7
20260903030319 14 192 0.0 3.2 0.00 0.00 0.00 92 1018.7
20260903030309 14 198 0.0 3.2 0.00 0.00 0.00 92 1018.8
20260903030253 14 192 0.0 3.2 0.00 0.00 0.00 92 1018.4
20260903030238 14 183 0.0 3.2 0.00 0.00 0.00 92 1018.9
20260903030222 14 190 0.0 3.2 0.00 0.00 0.00 92 1018.5
20260903030206 14 175 0.0 3.2 0.00 0.00 0.00 92 1018.8
20260903025928 14 198 0.0 3.2 0.00 0.00 0.00 92 1018.8
20260903025618 14 199 0.0 3.2 0.00 0.00 0.00 92 1018.7
20260903025520 14 195 1.6 3.2 0.00 0.00 0.00 92 1018.7
20260903025415 14 170 0.0 1.6 0.00 0.00 0.00 92 1018.8
20260903025316 14 190 0.0 1.6 0.00 0.00 0.00 92 1018.8
20260903025213 15 200 0.0 1.6 0.00 0.00 0.00 92 1018.7
20260903025115 15 192 0.0 1.6 0.00 0.00 0.00 92 1018.8
20260903025014 15 199 0.0 1.6 0.00 0.00 0.00 92 1018.8
20260903024915 15 200 0.0 1.6 0.00 0.00 0.00 92 1018.5
20260903024836 15 199 0.0 1.6 0.00 0.00 0.00 92 1018.8
20260903024811 15 198 0.0 0.0 0.00 0.00 0.00 92 1018.9
20260903024756 15 198 0.0 0.0 0.00 0.00 0.00 92 1018.7
20260903024741 15 198 0.0 0.0 0.00 0.00 0.00 92 1018.5
20260903024725 15 202 0.0 0.0 0.00 0.00 0.00 92 1018.7
20260903024443 15 200 0.0 0.0 0.00 0.00 0.00 92 1018.7
20260903024427 15 197 0.0 4.8 0.00 0.00 0.00 92 1018.9
20260903024412 15 197 0.0 4.8 0.00 0.00 0.00 92 1018.7
20260903024356 15 196 0.0 4.8 0.00 0.00 0.00 92 1018.5
20260903023908 15 196 0.0 4.8 0.00 0.00 0.00 92 1018.7
20260903023852 15 195 0.0 4.8 0.00 0.00 0.00 92 1018.7
20260903023836 15 194 0.0 4.8 0.00 0.00 0.00 92 1018.7
20260903023820 15 194 0.0 4.8 0.00 0.00 0.00 92 1018.9
20260903023334 15 137 0.0 4.8 0.00 0.00 0.00 92 1018.7
20260903023039 14 203 0.0 3.2 0.00 0.00 0.00 97 1018.9
20260903023033 14 170 0.0 4.8 0.00 0.00 0.00 97 1018.8
20260903023027 15 191 0.0 4.8 0.00 0.00 0.00 93 1018.7
20260903023012 15 190 0.0 4.8 0.00 0.00 0.00 93 1018.7
20260903022956 15 146 0.0 4.8 0.00 0.00 0.00 93 1018.7
20260903022723 15 183 0.0 4.8 0.00 0.00 0.00 93 1018.7
20260903022708 15 158 0.0 4.8 0.00 0.00 0.00 93 1018.7
20260903022652 15 28 4.8 4.8 0.00 0.00 0.00 94 1018.7
20260903022636 14 183 0.0 4.8 0.00 0.00 0.00 94 1018.5
20260903022621 14 111 0.0 4.8 0.00 0.00 0.00 94 1018.7
20260903022559 14 189 0.0 4.8 0.00 0.00 0.00 94 1018.7
20260903022543 14 192 0.0 4.8 0.00 0.00 0.00 94 1018.7
20260903022527 14 186 0.0 4.8 0.00 0.00 0.00 94 1018.7
20260903022511 14 139 3.2 4.8 0.00 0.00 0.00 95 1018.4
20260903022226 14 163 0.0 4.8 0.00 0.00 0.00 95 1018.7
20260903022211 14 165 0.0 4.8 0.00 0.00 0.00 96 1018.7
20260903021704 14 170 0.0 4.8 0.00 0.00 0.00 97 1018.8
20260903021219 14 196 0.0 3.2 0.00 0.00 0.00 97 1018.5
20260903020943 14 196 0.0 3.2 0.00 0.00 0.00 97 1018.5
20260903020924 14 203 0.0 3.2 0.00 0.00 0.00 97 1018.9
20260903020614 14 196 0.0 1.6 0.00 0.00 0.00 98 1018.8
20260903020514 14 193 0.0 1.6 0.00 0.00 0.00 98 1018.5
20260903020414 14 196 0.0 1.6 0.00 0.00 0.00 98 1018.8
20260903020314 14 193 0.0 1.6 0.00 0.00 0.00 98 1018.5
20260903020214 14 195 0.0 1.6 0.00 0.00 0.00 98 1018.9
20260903020148 14 196 0.0 1.6 0.00 0.00 0.00 98 1018.5
20260903020134 14 191 0.0 1.6 0.00 0.00 0.00 98 1018.9
20260903020119 14 194 0.0 1.6 0.00 0.00 0.00 98 1018.9
20260903015834 14 196 0.0 1.6 0.00 0.00 0.00 98 1018.7
20260903015513 14 212 1.6 1.6 0.00 0.00 0.00 98 1018.8
20260903015414 13 198 0.0 0.0 0.00 0.00 0.00 98 1018.8
20260903015314 13 196 0.0 0.0 0.00 0.00 0.00 98 1019.1
20260903015214 13 198 0.0 0.0 0.00 0.00 0.00 98 1018.9
20260903015115 13 200 0.0 0.0 0.00 0.00 0.00 99 1018.9
20260903015014 13 204 0.0 0.0 0.00 0.00 0.00 98 1018.9
20260903014931 14 198 0.0 1.6 0.00 0.00 0.00 98 1019.1
20260903014924 13 196 0.0 0.0 0.00 0.00 0.00 98 1019.0
20260903014908 13 196 0.0 0.0 0.00 0.00 0.00 98 1019.1
20260903014844 13 195 0.0 0.0 0.00 0.00 0.00 98 1018.8
20260903014816 13 194 0.0 0.0 0.00 0.00 0.00 98 1019.0
20260903014800 14 196 0.0 0.0 0.00 0.00 0.00 98 1019.0
20260903014316 14 200 0.0 0.0 0.00 0.00 0.00 98 1018.9
20260903014254 14 196 0.0 1.6 0.00 0.00 0.00 98 1019.1
20260903014238 14 194 0.0 1.6 0.00 0.00 0.00 98 1018.9
20260903014222 14 194 0.0 1.6 0.00 0.00 0.00 98 1019.0
20260903014205 14 184 0.0 1.6 0.00 0.00 0.00 98 1018.8
20260903013925 14 198 0.0 1.6 0.00 0.00 0.00 98 1019.1
20260903013615 14 197 0.0 1.6 0.00 0.00 0.00 98 1019.1
20260903013550 14 196 0.0 1.6 0.00 0.00 0.00 98 1019.0
20260903013534 14 196 0.0 1.6 0.00 0.00 0.00 98 1019.0
20260903013214 14 199 0.0 1.6 0.00 0.00 0.00 98 1019.1
20260903013114 14 196 0.0 1.6 0.00 0.00 0.00 99 1019.1
20260903013040 14 195 0.0 0.0 0.00 0.00 0.00 98 1018.7
20260903013030 14 192 0.0 1.6 0.00 0.00 0.00 98 1019.2
20260903013015 13 196 0.0 1.6 0.00 0.00 0.00 98 1019.1
20260903012958 13 197 0.0 1.6 0.00 0.00 0.00 98 1018.9
20260903012726 14 211 0.0 1.6 0.00 0.00 0.00 98 1019.0
20260903012709 14 160 0.0 1.6 0.00 0.00 0.00 98 1019.1
20260903012654 14 187 0.0 0.0 0.00 0.00 0.00 98 1019.1
20260903012638 14 195 0.0 0.0 0.00 0.00 0.00 98 1019.1
20260903012623 14 195 0.0 0.0 0.00 0.00 0.00 98 1018.7
20260903012606 14 195 0.0 0.0 0.00 0.00 0.00 98 1018.7
20260903012131 14 195 0.0 0.0 0.00 0.00 0.00 98 1018.7
20260903012115 14 195 0.0 0.0 0.00 0.00 0.00 98 1018.7
20260903012059 14 195 0.0 0.0 0.00 0.00 0.00 98 1018.7
20260903011836 14 195 0.0 0.0 0.00 0.00 0.00 98 1018.7
20260903011812 14 195 0.0 0.0 0.00 0.00 0.00 98 1018.8
20260903011756 14 195 0.0 0.0 0.00 0.00 0.00 98 1018.5
20260903011741 14 195 0.0 0.0 0.00 0.00 0.00 98 1018.7
20260903011725 14 195 0.0 0.0 0.00 0.00 0.00 98 1018.8
20260903011711 14 195 0.0 0.0 0.00 0.00 0.00 98 1018.4
20260903011647 14 195 0.0 0.0 0.00 0.00 0.00 98 1018.4
20260903011411 14 195 0.0 0.0 0.00 0.00 0.00 98 1018.7
20260903011356 14 195 0.0 0.0 0.00 0.00 0.00 98 1018.7
20260903011340 14 195 0.0 0.0 0.00 0.00 0.00 98 1019.0
20260903011321 14 195 0.0 0.0 0.00 0.00 0.00 98 1018.5
20260903011055 14 195 0.0 0.0 0.00 0.00 0.00 98 1018.7
20260903010335 14 195 0.0 0.0 0.00 0.00 0.00 98 1018.4
20260903010054 14 195 0.0 0.0 0.00 0.00 0.00 98 1018.4
20260903010045 14 195 0.0 0.0 0.00 0.00 0.00 98 1018.5
20260903010031 14 195 0.0 0.0 0.00 0.00 0.00 98 1018.9
20260903010015 14 195 0.0 0.0 0.00 0.00 0.00 98 1018.8
20260903005951 14 195 0.0 0.0 0.00 0.00 0.00 98 1018.8
20260903005716 14 195 0.0 0.0 0.00 0.00 0.00 98 1018.5
20260903005700 14 195 0.0 0.0 0.00 0.00 0.00 98 1018.5
20260903005423 14 195 0.0 0.0 0.00 0.00 0.00 98 1018.4
20260903005114 14 195 0.0 0.0 0.00 0.00 0.00 98 1018.5
20260903005014 14 195 0.0 0.0 0.00 0.00 0.00 98 1018.4
20260903004914 14 195 0.0 0.0 0.00 0.00 0.00 98 1018.7
20260903004814 14 195 0.0 0.0 0.00 0.00 0.00 98 1018.8
20260903004713 14 195 0.0 0.0 0.00 0.00 0.00 98 1018.7
20260903004405 14 195 0.0 0.0 0.00 0.00 0.00 98 1018.4
20260903004305 14 195 0.0 0.0 0.00 0.00 0.00 98 1018.7
20260903004213 14 195 0.0 0.0 0.00 0.00 0.00 98 1018.7
20260903004205 14 195 0.0 0.0 0.00 0.00 0.00 98 1018.5
20260903004105 14 195 0.0 0.0 0.00 0.00 0.00 98 1018.5
20260903004006 14 195 0.0 0.0 0.00 0.00 0.00 98 1018.3
20260903003906 14 195 0.0 0.0 0.00 0.00 0.00 98 1018.7
20260903003750 14 195 0.0 0.0 0.00 0.00 0.00 98 1018.5
20260903003743 14 195 0.0 0.0 0.00 0.00 0.00 98 1018.4
20260903003728 14 195 0.0 0.0 0.00 0.00 0.00 98 1018.7
20260903003405 14 195 0.0 0.0 0.00 0.00 0.00 98 1018.4
20260903003307 14 195 0.0 0.0 0.00 0.00 0.00 98 1018.7
20260903003213 14 195 0.0 0.0 0.00 0.00 0.00 98 1018.7
20260903003205 14 195 0.0 0.0 0.00 0.00 0.00 98 1018.9
20260903003141 14 195 0.0 0.0 0.00 0.00 0.00 98 1018.8
20260903003133 14 195 0.0 0.0 0.00 0.00 0.00 98 1018.7
20260903003117 14 195 0.0 0.0 0.00 0.00 0.00 98 1018.5
20260903003101 14 195 0.0 0.0 0.00 0.00 0.00 98 1018.7
20260903003029 14 195 0.0 0.0 0.00 0.00 0.00 98 1018.9
20260903003022 14 195 0.0 0.0 0.00 0.00 0.00 98 1018.8
20260903002746 14 195 0.0 0.0 0.00 0.00 0.00 98 1018.5
20260903002730 14 195 0.0 0.0 0.00 0.00 0.00 98 1018.5
20260903002454 14 195 0.0 0.0 0.00 0.00 0.00 98 1018.8
20260903002447 14 195 0.0 0.0 0.00 0.00 0.00 98 1018.7
20260903002432 14 195 0.0 0.0 0.00 0.00 0.00 98 1018.7
20260903001936 14 195 0.0 0.0 0.00 0.00 0.00 98 1018.8
20260903001705 14 195 0.0 0.0 0.00 0.00 0.00 98 1018.8
20260903001605 14 195 0.0 0.0 0.00 0.00 0.00 98 1018.8
20260903001506 14 195 0.0 0.0 0.00 0.00 0.00 98 1018.8
20260903001405 14 195 0.0 0.0 0.00 0.00 0.00 98 1019.0
20260903001305 14 195 0.0 0.0 0.00 0.00 0.00 98 1018.7
20260903001213 14 195 0.0 0.0 0.00 0.00 0.00 98 1018.7
20260903001205 14 195 0.0 0.0 0.00 0.00 0.00 98 1018.7
20260903001105 14 195 0.0 0.0 0.00 0.00 0.00 98 1018.9
20260903001005 14 195 0.0 0.0 0.00 0.00 0.00 98 1018.7
20260903000905 14 195 0.0 0.0 0.00 0.00 0.00 98 1018.8
20260903000805 14 195 0.0 0.0 0.00 0.00 0.00 97 1018.7
20260903000713 14 195 0.0 0.0 0.00 0.00 0.00 97 1018.7
20260903000705 14 195 0.0 0.0 0.00 0.00 0.00 97 1018.9
20260903000642 14 195 0.0 0.0 0.00 0.00 0.00 97 1019.0
20260903000627 14 195 0.0 0.0 0.00 0.00 0.00 97 1018.8
20260903000611 14 195 0.0 0.0 0.00 0.00 0.00 97 1018.8
20260903000540 14 202 0.0 0.0 0.00 0.00 0.00 97 1018.8
20260903000520 14 195 0.0 0.0 0.00 0.00 0.00 97 1018.5
20260903000025 14 195 0.0 0.0 0.00 0.00 0.00 97 1018.8
20260902235713 14 195 0.0 0.0 0.00 0.00 0.00 97 1018.9
20260902235707 14 195 0.0 0.0 0.00 0.00 0.00 97 1019.0
20260902235606 14 195 0.0 0.0 0.00 0.00 0.00 97 1019.0
20260902235541 14 195 0.0 0.0 0.00 0.00 0.00 97 1018.8
20260902235526 14 195 0.0 0.0 0.00 0.00 0.00 97 1018.9
20260902235213 14 195 0.0 0.0 0.00 0.00 0.00 97 1019.0
20260902235205 14 195 0.0 0.0 0.00 0.00 0.00 97 1018.8
20260902235105 14 195 0.0 0.0 0.00 0.00 0.00 97 1019.1
20260902235004 14 195 0.0 0.0 0.00 0.00 0.00 97 1019.1
20260902234936 14 195 0.0 0.0 0.00 0.00 0.00 97 1019.0
20260902234900 14 195 0.0 0.0 0.00 0.00 0.00 97 1019.0
20260902234854 14 195 0.0 0.0 0.00 0.00 0.00 97 1018.8
20260902234838 14 195 0.0 0.0 0.00 0.00 0.00 97 1018.9
20260902234822 14 195 0.0 0.0 0.00 0.00 0.00 97 1019.1
20260902234530 14 195 0.0 0.0 0.00 0.00 0.00 97 1019.1
20260902234523 14 195 0.0 0.0 0.00 0.00 0.00 97 1018.9
20260902234026 14 195 0.0 0.0 0.00 0.00 0.00 97 1018.9
20260902233953 14 195 0.0 0.0 0.00 0.00 0.00 97 1019.0
20260902233947 14 195 0.0 0.0 0.00 0.00 0.00 97 1019.0
20260902233405 14 195 0.0 0.0 0.00 0.00 0.00 97 1018.7
20260902233353 14 202 0.0 0.0 0.00 0.00 0.00 98 1018.9
20260902233332 14 195 0.0 0.0 0.00 0.00 0.00 97 1018.9
20260902233326 14 195 0.0 0.0 0.00 0.00 0.00 98 1018.7
20260902233309 14 195 0.0 0.0 0.00 0.00 0.00 97 1018.8
20260902233043 14 195 0.0 0.0 0.00 0.00 0.00 98 1019.0
20260902233027 14 195 0.0 0.0 0.00 0.00 0.00 98 1019.0
20260902233012 14 202 0.0 0.0 0.00 0.00 0.00 98 1018.8
20260902232953 14 195 0.0 0.0 0.00 0.00 0.00 98 1018.8
20260902232946 14 195 0.0 0.0 0.00 0.00 0.00 98 1018.9
20260902232931 14 195 0.0 0.0 0.00 0.00 0.00 98 1019.1
20260902232914 14 202 0.0 0.0 0.00 0.00 0.00 98 1019.0
20260902232205 14 202 0.0 0.0 0.00 0.00 0.00 98 1018.9
20260902232105 14 202 0.0 0.0 0.00 0.00 0.00 98 1018.7
20260902232005 14 198 0.0 0.0 0.00 0.00 0.00 98 1019.0
20260902231907 14 198 0.0 0.0 0.00 0.00 0.00 98 1019.0
20260902231851 14 198 0.0 0.0 0.00 0.00 0.00 98 1019.1
20260902231833 14 202 0.0 0.0 0.00 0.00 0.00 98 1019.1
20260902231827 14 202 0.0 0.0 0.00 0.00 0.00 98 1019.0
20260902231454 14 195 0.0 0.0 0.00 0.00 0.00 98 1019.0
20260902231354 14 195 0.0 0.0 0.00 0.00 0.00 98 1019.1
20260902231253 14 195 0.0 0.0 0.00 0.00 0.00 98 1019.0
20260902231213 14 195 0.0 0.0 0.00 0.00 0.00 98 1019.0
20260902231153 14 195 0.0 0.0 0.00 0.00 0.00 98 1019.0
20260902231054 14 195 0.0 0.0 0.00 0.00 0.00 98 1018.9
20260902231026 13 195 0.0 0.0 0.00 0.00 0.00 98 1019.1
20260902231017 14 195 0.0 0.0 0.00 0.00 0.00 98 1019.1
20260902231002 14 195 0.0 0.0 0.00 0.00 0.00 99 1018.9
20260902230930 13 195 0.0 0.0 0.00 0.00 0.00 99 1019.0
20260902230922 13 195 0.0 0.0 0.00 0.00 0.00 99 1019.3
20260902230647 13 195 0.0 0.0 0.00 0.00 0.00 98 1019.2
20260902230631 13 195 0.0 0.0 0.00 0.00 0.00 98 1019.0
20260902230615 13 195 0.0 0.0 0.00 0.00 0.00 98 1019.1
20260902230348 13 195 0.0 0.0 0.00 0.00 0.00 98 1019.0
20260902230112 13 195 0.0 0.0 0.00 0.00 0.00 98 1019.0
20260902225755 13 195 0.0 0.0 0.00 0.00 0.00 98 1019.1
20260902225714 13 195 0.0 0.0 0.00 0.00 0.00 98 1019.1
20260902225655 13 195 0.0 0.0 0.00 0.00 0.00 98 1019.2
20260902225553 13 202 0.0 0.0 0.00 0.00 0.00 98 1019.1
20260902225531 13 202 0.0 0.0 0.00 0.00 0.00 98 1019.0
20260902225514 13 198 0.0 0.0 0.00 0.00 0.00 98 1019.2
20260902225214 13 195 0.0 0.0 0.00 0.00 0.00 98 1019.2
20260902225153 13 195 0.0 0.0 0.00 0.00 0.00 98 1019.0
20260902225052 13 195 0.0 0.0 0.00 0.00 0.00 98 1019.1
20260902224953 13 195 0.0 0.0 0.00 0.00 0.00 98 1019.1
20260902224857 13 195 0.0 0.0 0.00 0.00 0.00 98 1019.1
20260902224845 13 195 0.0 0.0 0.00 0.00 0.00 98 1019.1
20260902224819 13 195 0.0 0.0 0.00 0.00 0.00 98 1019.1
20260902224809 13 195 0.0 0.0 0.00 0.00 0.00 98 1019.1
20260902224748 13 195 0.0 0.0 0.00 0.00 0.00 98 1019.0
20260902224733 13 195 0.0 0.0 0.00 0.00 0.00 98 1019.3
20260902224716 13 195 0.0 0.0 0.00 0.00 0.00 98 1019.0
20260902224700 13 195 0.0 0.0 0.00 0.00 0.00 98 1019.1
20260902224433 13 195 0.0 0.0 0.00 0.00 0.00 98 1019.2
20260902224418 13 195 0.0 0.0 0.00 0.00 0.00 98 1019.1
20260902223905 13 195 0.0 0.0 0.00 0.00 0.00 97 1019.3
20260902223554 13 195 0.0 0.0 0.00 0.00 0.00 97 1019.1
20260902223453 13 195 0.0 0.0 0.00 0.00 0.00 97 1019.3
20260902223354 14 195 0.0 0.0 0.00 0.00 0.00 97 1019.1
20260902223238 14 195 0.0 0.0 0.00 0.00 0.00 97 1019.2
20260902223230 14 195 0.0 0.0 0.00 0.00 0.00 97 1019.3
20260902223214 14 195 0.0 0.0 0.00 0.00 0.00 97 1019.1
20260902222853 14 195 0.0 0.0 0.00 0.00 0.00 97 1019.2
20260902222805 14 195 0.0 0.0 0.00 0.00 0.00 96 1019.2
20260902222744 14 195 0.0 0.0 0.00 0.00 0.00 97 1019.1
20260902222735 14 195 0.0 0.0 0.00 0.00 0.00 97 1019.0
20260902222721 14 195 0.0 0.0 0.00 0.00 0.00 97 1019.1
20260902222705 14 195 0.0 0.0 0.00 0.00 0.00 97 1019.3
20260902222650 14 196 0.0 0.0 0.00 0.00 0.00 97 1019.3
20260902222414 14 196 0.0 0.0 0.00 0.00 0.00 97 1019.1
20260902222406 14 195 0.0 0.0 0.00 0.00 0.00 97 1018.9
20260902222350 14 195 0.0 0.0 0.00 0.00 0.00 97 1019.1
20260902222335 14 196 0.0 0.0 0.00 0.00 0.00 97 1019.2
20260902222320 14 196 0.0 0.0 0.00 0.00 0.00 97 1019.0
20260902222245 14 195 0.0 0.0 0.00 0.00 0.00 97 1019.2
20260902222237 14 195 0.0 0.0 0.00 0.00 0.00 97 1019.0
20260902222222 14 195 0.0 0.0 0.00 0.00 0.00 97 1019.2
20260902222206 14 195 0.0 0.0 0.00 0.00 0.00 97 1019.2
20260902222150 14 195 0.0 0.0 0.00 0.00 0.00 97 1018.9
20260902222122 14 195 0.0 0.0 0.00 0.00 0.00 97 1019.1
20260902222113 14 195 0.0 0.0 0.00 0.00 0.00 97 1019.0
20260902222058 14 195 0.0 0.0 0.00 0.00 0.00 97 1019.1
20260902221820 14 202 0.0 0.0 0.00 0.00 0.00 96 1019.0
20260902221750 14 195 0.0 0.0 0.00 0.00 0.00 96 1019.3
20260902221521 14 195 0.0 0.0 0.00 0.00 0.00 96 1019.1
20260902220809 14 195 0.0 0.0 0.00 0.00 0.00 96 1019.0
20260902220800 14 195 0.0 0.0 0.00 0.00 0.00 96 1019.2
20260902220744 14 195 0.0 0.0 0.00 0.00 0.00 96 1019.1
20260902220510 14 195 0.0 0.0 0.00 0.00 0.00 96 1019.3
20260902220021 14 195 0.0 0.0 0.00 0.00 0.00 96 1019.1
20260902220005 14 196 0.0 0.0 0.00 0.00 0.00 96 1019.2
20260902215948 14 196 0.0 0.0 0.00 0.00 0.00 95 1019.1
20260902215933 15 195 0.0 0.0 0.00 0.00 0.00 95 1019.3
20260902215701 15 196 0.0 0.0 0.00 0.00 0.00 95 1018.9
20260902215211 15 196 0.0 0.0 0.00 0.00 0.00 95 1019.1
20260902214714 15 196 0.0 0.0 0.00 0.00 0.00 96 1019.3
20260902214629 15 196 0.0 0.0 0.00 0.00 0.00 96 1019.1
20260902214528 15 196 0.0 0.0 0.00 0.00 0.00 96 1019.1
20260902214429 15 196 0.0 0.0 0.00 0.00 0.00 96 1019.1
20260902214329 15 196 0.0 1.6 0.00 0.00 0.00 96 1018.9
20260902214213 15 196 0.0 1.6 0.00 0.00 0.00 96 1019.1
20260902214129 15 196 0.0 1.6 0.00 0.00 0.00 96 1018.9
20260902214016 15 192 0.0 1.6 0.00 0.00 0.00 96 1018.9
20260902213951 14 198 0.0 0.0 0.00 0.00 0.00 98 1018.9
20260902213946 14 196 0.0 0.0 0.00 0.00 0.00 97 1019.1
20260902213941 15 196 0.0 0.0 0.00 0.00 0.00 97 1019.1
20260902213935 15 186 0.0 1.6 0.00 0.00 0.00 97 1019.1
20260902213918 15 188 0.0 1.6 0.00 0.00 0.00 97 1019.0
20260902213854 15 189 0.0 1.6 0.00 0.00 0.00 97 1019.1
20260902213839 15 181 0.0 1.6 0.00 0.00 0.00 97 1019.0
20260902213823 15 176 0.0 1.6 0.00 0.00 0.00 98 1019.2
20260902213547 14 189 0.0 0.0 0.00 0.00 0.00 98 1019.1
20260902213529 14 198 0.0 0.0 0.00 0.00 0.00 98 1018.9
20260902213303 14 195 0.0 0.0 0.00 0.00 0.00 98 1018.9
20260902213248 14 202 0.0 0.0 0.00 0.00 0.00 98 1019.0
20260902213232 14 196 0.0 0.0 0.00 0.00 0.00 98 1019.0
20260902213217 14 196 0.0 0.0 0.00 0.00 0.00 97 1018.9
20260902212729 14 196 0.0 0.0 0.00 0.00 0.00 97 1019.1
20260902212713 14 196 0.0 0.0 0.00 0.00 0.00 97 1019.1
20260902212656 14 196 0.0 0.0 0.00 0.00 0.00 97 1018.8
20260902212641 14 196 0.0 0.0 0.00 0.00 0.00 97 1019.0
20260902212623 15 196 0.0 0.0 0.00 0.00 0.00 97 1019.1
20260902212357 15 196 0.0 0.0 0.00 0.00 0.00 97 1018.9
20260902211816 15 196 0.0 0.0 0.00 0.00 0.00 97 1019.0
20260902211717 15 196 0.0 0.0 0.00 0.00 0.00 97 1019.0
20260902211605 15 196 0.0 0.0 0.00 0.00 0.00 97 1019.0
20260902211505 15 196 0.0 0.0 0.00 0.00 0.00 97 1019.0
20260902211405 15 196 0.0 0.0 0.00 0.00 0.00 97 1019.1
20260902211305 15 196 0.0 0.0 0.00 0.00 0.00 96 1019.1
20260902211226 15 196 0.0 0.0 0.00 0.00 0.00 96 1018.9
20260902211206 15 196 0.0 0.0 0.00 0.00 0.00 96 1019.0
20260902211105 15 196 0.0 0.0 0.00 0.00 0.00 96 1019.0
20260902211007 15 196 0.0 0.0 0.00 0.00 0.00 96 1019.1
20260902210904 15 196 0.0 0.0 0.00 0.00 0.00 96 1019.1
20260902210805 15 196 0.0 0.0 0.00 0.00 0.00 96 1018.9
20260902210734 15 196 0.0 0.0 0.00 0.00 0.00 96 1018.9
20260902210728 15 196 0.0 0.0 0.00 0.00 0.00 96 1019.0
20260902210713 15 196 0.0 0.0 0.00 0.00 0.00 96 1019.0
20260902210354 15 196 0.0 0.0 0.00 0.00 0.00 96 1019.2
20260902210225 15 196 0.0 0.0 0.00 0.00 0.00 96 1019.1
20260902210154 15 196 0.0 0.0 0.00 0.00 0.00 96 1019.1
20260902210053 15 196 0.0 0.0 0.00 0.00 0.00 96 1019.1
20260902205953 15 196 0.0 0.0 0.00 0.00 0.00 96 1018.9
20260902205908 15 196 0.0 0.0 0.00 0.00 0.00 96 1019.1
20260902205903 15 196 0.0 0.0 0.00 0.00 0.00 95 1018.9
20260902205858 15 196 0.0 0.0 0.00 0.00 0.00 96 1019.0
20260902205826 15 196 0.0 0.0 0.00 0.00 0.00 96 1019.0
20260902205818 15 196 0.0 0.0 0.00 0.00 0.00 96 1018.8
20260902205802 15 196 0.0 0.0 0.00 0.00 0.00 96 1019.1
20260902205746 15 196 0.0 0.0 0.00 0.00 0.00 96 1018.8
20260902205731 15 196 0.0 0.0 0.00 0.00 0.00 96 1018.9
20260902205244 15 196 0.0 0.0 0.00 0.00 0.00 96 1019.0
20260902205229 15 196 0.0 0.0 0.00 0.00 0.00 96 1019.1
20260902205213 15 196 0.0 0.0 0.00 0.00 0.00 96 1018.9
20260902205157 15 196 0.0 0.0 0.00 0.00 0.00 95 1019.1
20260902204654 15 196 0.0 0.0 0.00 0.00 0.00 95 1019.0
20260902204554 15 196 0.0 0.0 0.00 0.00 0.00 95 1019.0
20260902204453 15 196 0.0 0.0 0.00 0.00 0.00 95 1019.0
20260902204353 15 196 0.0 0.0 0.00 0.00 0.00 95 1019.0
20260902204238 15 196 0.0 0.0 0.00 0.00 0.00 95 1018.9
20260902204230 15 196 0.0 0.0 0.00 0.00 0.00 95 1019.1
20260902204214 15 196 0.0 0.0 0.00 0.00 0.00 95 1019.1
20260902203853 15 196 0.0 0.0 0.00 0.00 0.00 95 1018.9
20260902203736 15 196 0.0 0.0 0.00 0.00 0.00 93 1019.0
20260902203726 15 196 0.0 0.0 0.00 0.00 0.00 95 1018.9
20260902203718 15 196 0.0 0.0 0.00 0.00 0.00 95 1018.9
20260902203702 15 196 0.0 0.0 0.00 0.00 0.00 95 1018.9
20260902203647 15 196 0.0 0.0 0.00 0.00 0.00 95 1019.0
20260902203357 15 196 0.0 0.0 0.00 0.00 0.00 95 1019.0
20260902203349 15 196 0.0 0.0 0.00 0.00 0.00 94 1019.2
20260902203334 15 196 0.0 0.0 0.00 0.00 0.00 94 1019.0
20260902203318 15 196 0.0 0.0 0.00 0.00 0.00 94 1019.1
20260902203302 15 196 0.0 0.0 0.00 0.00 0.00 94 1019.0
20260902203247 15 196 0.0 0.0 0.00 0.00 0.00 94 1019.0
20260902202529 15 196 0.0 0.0 0.00 0.00 0.00 93 1019.0
20260902202515 16 196 0.0 0.0 0.00 0.00 0.00 93 1019.0
20260902202214 16 196 0.0 0.0 0.00 0.00 0.00 93 1019.1
20260902202152 16 196 0.0 0.0 0.00 0.00 0.00 93 1018.9
20260902202054 16 196 0.0 0.0 0.00 0.00 0.00 93 1019.1
20260902201953 16 196 0.0 0.0 0.00 0.00 0.00 93 1019.1
20260902201853 16 196 0.0 0.0 0.00 0.00 0.00 93 1018.9
20260902201753 16 196 0.0 0.0 0.00 0.00 0.00 93 1019.0
20260902201714 16 196 0.0 0.0 0.00 0.00 0.00 93 1019.0
20260902201654 16 196 0.0 0.0 0.00 0.00 0.00 93 1019.1
20260902201553 16 196 0.0 0.0 0.00 0.00 0.00 93 1019.0
20260902201453 16 196 0.0 0.0 0.00 0.00 0.00 93 1019.1
20260902201352 16 196 0.0 0.0 0.00 0.00 0.00 93 1019.2
20260902201226 16 196 0.0 0.0 0.00 0.00 0.00 93 1019.1
20260902201153 16 196 0.0 0.0 0.00 0.00 0.00 93 1018.9
20260902201053 16 196 0.0 0.0 0.00 0.00 0.00 93 1019.1
20260902200955 16 196 0.0 0.0 0.00 0.00 0.00 93 1018.9
20260902200854 16 196 0.0 0.0 0.00 0.00 0.00 93 1018.9
20260902200744 16 196 0.0 0.0 0.00 0.00 0.00 92 1019.1
20260902200734 16 196 0.0 0.0 0.00 0.00 0.00 93 1019.0
20260902200726 16 196 0.0 0.0 0.00 0.00 0.00 93 1018.9
20260902200711 16 196 0.0 0.0 0.00 0.00 0.00 93 1019.0
20260902200655 16 196 0.0 0.0 0.00 0.00 0.00 93 1018.9
20260902200641 16 196 0.0 0.0 0.00 0.00 0.00 93 1019.0
20260902200625 16 196 0.0 0.0 0.00 0.00 0.00 93 1019.1
20260902200054 16 196 0.0 0.0 0.00 0.00 0.00 92 1018.9
20260902195953 16 196 0.0 0.0 0.00 0.00 0.00 92 1019.1
20260902195853 16 196 0.0 0.0 0.00 0.00 0.00 92 1019.1
20260902195754 16 196 0.0 0.0 0.00 0.00 0.00 92 1018.9
20260902195734 16 198 0.0 0.0 0.00 0.00 0.00 90 1019.1
20260902195724 16 196 0.0 0.0 0.00 0.00 0.00 92 1018.9
20260902195716 16 196 0.0 0.0 0.00 0.00 0.00 92 1018.9
20260902195700 16 196 0.0 0.0 0.00 0.00 0.00 92 1019.0
20260902195645 16 196 0.0 0.0 0.00 0.00 0.00 91 1019.1
20260902195417 16 196 0.0 0.0 0.00 0.00 0.00 91 1019.1
20260902195348 16 196 0.0 0.0 0.00 0.00 0.00 91 1019.0
20260902195339 16 196 0.0 0.0 0.00 0.00 0.00 91 1018.9
20260902195319 16 196 0.0 0.0 0.00 0.00 0.00 91 1019.0
20260902195306 16 196 0.0 0.0 0.00 0.00 0.00 90 1019.1
20260902195249 16 196 0.0 0.0 0.00 0.00 0.00 90 1019.1
20260902195219 16 196 0.0 0.0 0.00 0.00 0.00 90 1018.9
20260902194948 16 196 0.0 0.0 0.00 0.00 0.00 90 1019.0
20260902194232 16 196 0.0 0.0 0.00 0.00 0.00 90 1019.0
20260902194222 16 196 0.0 0.0 0.00 0.00 0.00 90 1019.0
20260902194206 16 196 0.0 0.0 0.00 0.00 0.00 90 1019.0
20260902194150 16 196 0.0 0.0 0.00 0.00 0.00 90 1019.1
20260902194134 16 196 0.0 0.0 0.00 0.00 0.00 90 1018.9
20260902193905 16 196 0.0 0.0 0.00 0.00 0.00 90 1019.1
20260902193630 16 196 0.0 0.0 0.00 0.00 0.00 90 1019.2
20260902193614 16 196 0.0 0.0 0.00 0.00 0.00 90 1019.2
20260902193349 16 196 0.0 0.0 0.00 0.00 0.00 90 1019.0
20260902193325 16 196 0.0 0.0 0.00 0.00 0.00 90 1019.0
20260902193309 16 196 0.0 0.0 0.00 0.00 0.00 90 1018.9
20260902193253 16 195 0.0 0.0 0.00 0.00 0.00 90 1019.2
20260902193237 16 201 0.0 0.0 0.00 0.00 0.00 90 1019.0
20260902193223 16 198 0.0 0.0 0.00 0.00 0.00 90 1019.2
20260902193203 16 198 0.0 0.0 0.00 0.00 0.00 90 1019.1
20260902192924 16 201 0.0 0.0 0.00 0.00 0.00 90 1019.1
20260902192908 16 201 0.0 0.0 0.00 0.00 0.00 90 1019.3
20260902192852 16 200 0.0 0.0 0.00 0.00 0.00 90 1019.3
20260902192836 16 200 0.0 0.0 0.00 0.00 0.00 89 1019.0
20260902192609 16 198 0.0 0.0 0.00 0.00 0.00 89 1019.0
20260902192552 16 196 0.0 0.0 0.00 0.00 0.00 90 1019.1
20260902192537 16 196 0.0 0.0 0.00 0.00 0.00 89 1019.1
20260902192521 16 196 0.0 0.0 0.00 0.00 0.00 89 1019.1
20260902192237 17 197 0.0 0.0 0.00 0.00 0.00 89 1019.1
20260902192221 17 197 0.0 0.0 0.00 0.00 0.00 89 1019.1
20260902191945 17 196 0.0 0.0 0.00 0.00 0.00 88 1019.1
20260902191238 17 196 0.0 0.0 0.00 0.00 0.00 88 1019.1
20260902190917 17 194 0.0 0.0 0.00 0.00 0.00 88 1019.0
20260902190851 17 194 0.0 0.0 0.00 0.00 0.00 88 1018.9
20260902190827 17 194 0.0 0.0 0.00 0.00 0.00 87 1019.2
20260902190811 17 194 0.0 0.0 0.00 0.00 0.00 87 1019.1
20260902190535 17 190 0.0 0.0 0.00 0.00 0.00 87 1019.2
20260902190520 17 191 0.0 0.0 0.00 0.00 0.00 87 1019.2
20260902190458 17 193 0.0 0.0 0.00 0.00 0.00 88 1019.1
20260902185916 17 195 0.0 0.0 0.00 0.00 0.00 88 1019.2
20260902185817 17 195 0.0 0.0 0.00 0.00 0.00 88 1019.1
20260902185717 17 194 0.0 0.0 0.00 0.00 0.00 88 1019.1
20260902185618 16 194 0.0 0.0 0.00 0.00 0.00 88 1019.0
20260902185518 17 193 0.0 0.0 0.00 0.00 0.00 88 1019.1
20260902185417 17 191 0.0 0.0 0.00 0.00 0.00 89 1018.9
20260902185321 17 191 0.0 0.0 0.00 0.00 0.00 89 1019.0
20260902185222 17 184 0.0 0.0 0.00 0.00 0.00 89 1019.0
20260902185153 16 191 0.0 0.0 0.00 0.00 0.00 89 1019.0
20260902185137 16 185 0.0 0.0 0.00 0.00 0.00 89 1019.0
20260902184817 16 191 0.0 0.0 0.00 0.00 0.00 89 1019.1
20260902184719 16 185 0.0 0.0 0.00 0.00 0.00 89 1018.9
20260902184618 16 185 0.0 0.0 0.00 0.00 0.00 89 1019.0
20260902184518 16 185 0.0 0.0 0.00 0.00 0.00 89 1019.1
20260902184418 16 195 0.0 0.0 0.00 0.00 0.00 89 1019.0
20260902184317 17 195 0.0 0.0 0.00 0.00 0.00 89 1018.7
20260902184217 17 194 0.0 0.0 0.00 0.00 0.00 89 1019.1
20260902184118 17 195 0.0 0.0 0.00 0.00 0.00 89 1018.8
20260902184024 17 195 0.0 0.0 0.00 0.00 0.00 87 1019.0
20260902184019 17 195 0.0 0.0 0.00 0.00 0.00 89 1019.1
20260902184003 17 195 0.0 0.0 0.00 0.00 0.00 88 1019.0
20260902183947 17 195 0.0 0.0 0.00 0.00 0.00 88 1018.9
20260902183928 17 195 0.0 0.0 0.00 0.00 0.00 87 1019.0
20260902183617 17 195 0.0 0.0 0.00 0.00 0.00 87 1018.9
20260902183517 17 195 0.0 0.0 0.00 0.00 0.00 87 1019.1
20260902183459 17 195 0.0 0.0 0.00 0.00 0.00 86 1019.0
20260902183444 17 195 0.0 0.0 0.00 0.00 0.00 86 1018.8
20260902183217 17 195 0.0 0.0 0.00 0.00 0.00 86 1019.0
20260902183117 17 195 0.0 0.0 0.00 0.00 0.00 86 1019.0
20260902183043 17 195 0.0 0.0 0.00 0.00 0.00 86 1018.8
20260902183027 17 194 0.0 0.0 0.00 0.00 0.00 86 1019.0
20260902183012 17 194 0.0 0.0 0.00 0.00 0.00 86 1018.8
20260902182743 17 194 0.0 0.0 0.00 0.00 0.00 86 1018.9
20260902182727 17 194 0.0 0.0 0.00 0.00 0.00 86 1018.9
20260902182711 17 194 0.0 0.0 0.00 0.00 0.00 86 1019.0
20260902182436 17 194 0.0 0.0 0.00 0.00 0.00 86 1019.0
20260902182413 17 194 0.0 0.0 0.00 0.00 0.00 86 1019.0
20260902182357 17 194 0.0 0.0 0.00 0.00 0.00 86 1018.5
20260902181817 17 194 0.0 0.0 0.00 0.00 0.00 86 1018.9
20260902181718 17 194 0.0 0.0 0.00 0.00 0.00 85 1018.9
20260902181618 17 194 0.0 0.0 0.00 0.00 0.00 85 1019.1
20260902181517 17 194 0.0 0.0 0.00 0.00 0.00 85 1019.1
20260902181417 18 194 0.0 0.0 0.00 0.00 0.00 85 1019.0
20260902181317 18 194 0.0 0.0 0.00 0.00 0.00 85 1018.9
20260902181218 18 194 0.0 0.0 0.00 0.00 0.00 85 1019.1
20260902181118 18 194 0.0 0.0 0.00 0.00 0.00 85 1018.9
20260902181055 19 194 0.0 0.0 0.00 0.00 0.00 79 1018.7
20260902181047 18 194 0.0 0.0 0.00 0.00 0.00 84 1019.1
20260902181032 18 194 0.0 0.0 0.00 0.00 0.00 84 1018.9
20260902181016 18 194 0.0 0.0 0.00 0.00 0.00 84 1019.2
20260902180744 18 194 0.0 0.0 0.00 0.00 0.00 84 1018.8
20260902180728 18 194 0.0 0.0 0.00 0.00 0.00 84 1019.1
20260902180713 18 195 0.0 0.0 0.00 0.00 0.00 83 1018.9
20260902180657 18 194 0.0 0.0 0.00 0.00 0.00 83 1018.9
20260902180641 18 194 0.0 0.0 0.00 0.00 0.00 83 1018.9
20260902180415 18 194 0.0 0.0 0.00 0.00 0.00 82 1018.9
20260902180359 18 194 0.0 0.0 0.00 0.00 0.00 82 1018.5
20260902180342 18 194 0.0 0.0 0.00 0.00 0.00 81 1019.0
20260902180326 18 195 0.0 0.0 0.00 0.00 0.00 80 1018.8
20260902180311 18 195 0.0 0.0 0.00 0.00 0.00 80 1018.9
20260902180252 19 194 0.0 0.0 0.00 0.00 0.00 79 1018.7
20260902175600 19 107 0.0 0.0 0.00 0.00 0.00 77 1018.9
20260902175551 19 195 0.0 0.0 0.00 0.00 0.00 78 1018.8
20260902175535 19 107 0.0 0.0 0.00 0.00 0.00 78 1019.0
20260902175519 19 107 0.0 0.0 0.00 0.00 0.00 77 1018.9
20260902175503 19 107 0.0 0.0 0.00 0.00 0.00 77 1018.9
20260902175239 19 107 0.0 0.0 0.00 0.00 0.00 77 1018.7
20260902175223 19 107 0.0 0.0 0.00 0.00 0.00 77 1018.8
20260902175001 19 107 0.0 0.0 0.00 0.00 0.00 77 1018.5
20260902174945 20 107 0.0 0.0 0.00 0.00 0.00 76 1018.8
20260902174926 20 195 0.0 0.0 0.00 0.00 0.00 76 1018.8
20260902174617 20 195 0.0 0.0 0.00 0.00 0.00 76 1018.9
20260902174516 20 195 0.0 0.0 0.00 0.00 0.00 76 1018.8
20260902174416 20 195 0.0 0.0 0.00 0.00 0.00 76 1018.9
20260902174317 20 107 0.0 0.0 0.00 0.00 0.00 75 1018.9
20260902174217 20 195 0.0 0.0 0.00 0.00 0.00 75 1018.9
20260902174116 20 195 0.0 0.0 0.00 0.00 0.00 75 1018.9
20260902174016 20 195 0.0 0.0 0.00 0.00 0.00 75 1018.9
20260902173916 20 195 0.0 0.0 0.00 0.00 0.00 75 1018.8
20260902173817 20 195 0.0 0.0 0.00 0.00 0.00 75 1018.9
20260902173716 20 195 0.0 0.0 0.00 0.00 0.00 74 1018.8
20260902173616 20 195 0.0 0.0 0.00 0.00 0.00 74 1018.8
20260902173516 20 195 0.0 0.0 0.00 0.00 0.00 74 1018.7
20260902173417 20 195 0.0 0.0 0.00 0.00 0.00 74 1018.5
20260902173316 20 195 0.0 0.0 0.00 0.00 0.00 74 1018.7
20260902173251 20 195 0.0 0.0 0.00 0.00 0.00 74 1018.8
20260902173236 20 187 0.0 0.0 0.00 0.00 0.00 73 1018.8
20260902172916 20 187 0.0 0.0 0.00 0.00 0.00 73 1018.9
20260902172816 20 187 0.0 0.0 0.00 0.00 0.00 73 1018.8
20260902172716 20 195 0.0 0.0 0.00 0.00 0.00 73 1018.7
20260902172617 20 187 0.0 0.0 0.00 0.00 0.00 73 1018.8
20260902172516 20 195 0.0 0.0 0.00 0.00 0.00 73 1018.5
20260902172418 20 187 0.0 0.0 0.00 0.00 0.00 73 1018.5
20260902172317 20 195 0.0 0.0 0.00 0.00 0.00 72 1018.5
20260902172216 20 187 0.0 0.0 0.00 0.00 0.00 73 1018.5
20260902172117 20 195 0.0 0.0 0.00 0.00 0.00 73 1018.7
20260902172018 20 187 0.0 0.0 0.00 0.00 0.00 73 1018.8
20260902172002 20 191 0.0 0.0 0.00 0.00 0.00 73 1018.9
20260902171945 20 187 0.0 0.0 0.00 0.00 0.00 73 1018.7
20260902171716 20 187 0.0 0.0 0.00 0.00 0.00 72 1018.5
20260902171616 20 193 0.0 0.0 0.00 0.00 0.00 72 1018.7
20260902171516 20 191 0.0 0.0 0.00 0.00 0.00 72 1018.8
20260902171416 20 191 0.0 0.0 0.00 0.00 0.00 72 1018.4
20260902171317 20 191 0.0 0.0 0.00 0.00 0.00 72 1018.7
20260902171216 20 191 0.0 0.0 0.00 0.00 0.00 72 1018.8
20260902171118 20 193 0.0 0.0 0.00 0.00 0.00 72 1018.7
20260902171016 21 191 0.0 0.0 0.00 0.00 0.00 71 1018.5
20260902170916 21 187 0.0 0.0 0.00 0.00 0.00 72 1018.7
20260902170816 21 191 0.0 0.0 0.00 0.00 0.00 72 1018.8
20260902170716 21 191 0.0 0.0 0.00 0.00 0.00 71 1018.5
20260902170616 21 191 0.0 0.0 0.00 0.00 0.00 71 1018.8
20260902170516 21 191 0.0 0.0 0.00 0.00 0.00 71 1018.7
20260902170416 21 191 0.0 0.0 0.00 0.00 0.00 71 1018.7
20260902170316 21 187 0.0 0.0 0.00 0.00 0.00 71 1018.8
20260902170216 21 187 0.0 0.0 0.00 0.00 0.00 70 1018.4
20260902170116 21 191 0.0 0.0 0.00 0.00 0.00 70 1018.8
20260902170016 21 187 0.0 0.0 0.00 0.00 0.00 70 1018.4
20260902165917 21 195 0.0 0.0 0.00 0.00 0.00 70 1018.7
20260902165901 21 195 0.0 0.0 0.00 0.00 0.00 70 1018.7
20260902165837 21 195 0.0 0.0 0.00 0.00 0.00 70 1018.7
20260902165516 21 198 0.0 0.0 0.00 0.00 0.00 71 1018.7
20260902165417 21 198 0.0 0.0 0.00 0.00 0.00 71 1018.7
20260902165316 21 198 0.0 0.0 0.00 0.00 0.00 70 1018.8
20260902165216 21 198 0.0 0.0 0.00 0.00 0.00 70 1018.4
20260902165116 21 198 0.0 0.0 0.00 0.00 0.00 70 1018.8
20260902165016 21 196 0.0 0.0 0.00 0.00 0.00 69 1018.5
20260902165000 21 195 0.0 0.0 0.00 0.00 0.00 69 1018.7
20260902164945 21 199 0.0 0.0 0.00 0.00 0.00 69 1018.5
20260902164716 21 199 0.0 0.0 0.00 0.00 0.00 69 1018.7
20260902164351 21 196 0.0 1.6 0.00 0.00 0.00 70 1018.4
20260902164327 21 196 0.0 1.6 0.00 0.00 0.00 70 1018.7
20260902164311 21 194 0.0 0.0 0.00 0.00 0.00 70 1018.4
20260902163951 21 194 0.0 0.0 0.00 0.00 0.00 69 1018.7
20260902163852 21 194 0.0 0.0 0.00 0.00 0.00 69 1018.7
20260902163830 21 192 0.0 0.0 0.00 0.00 0.00 69 1018.5
20260902163812 21 190 0.0 0.0 0.00 0.00 0.00 69 1018.5
20260902163756 21 189 0.0 0.0 0.00 0.00 0.00 69 1018.4
20260902163519 21 198 0.0 0.0 0.00 0.00 0.00 70 1018.7
20260902163252 21 196 0.0 0.0 0.00 0.00 0.00 70 1018.7
20260902163151 21 196 0.0 0.0 0.00 0.00 0.00 69 1018.8
20260902163139 21 198 0.0 1.6 0.00 0.00 0.00 70 1018.7
20260902163129 21 191 0.0 0.0 0.00 0.00 0.00 70 1018.8
20260902163113 21 198 0.0 0.0 0.00 0.00 0.00 69 1018.8
20260902162831 21 198 0.0 1.6 0.00 0.00 0.00 70 1018.5
20260902162813 21 198 0.0 1.6 0.00 0.00 0.00 70 1018.4
20260902162756 21 198 0.0 1.6 0.00 0.00 0.00 70 1018.5
20260902162740 21 198 0.0 1.6 0.00 0.00 0.00 70 1018.4
20260902162724 21 198 0.0 1.6 0.00 0.00 0.00 70 1018.8
20260902162152 21 199 0.0 1.6 0.00 0.00 0.00 69 1018.7
20260902162051 21 200 0.0 1.6 0.00 0.00 0.00 69 1018.4
20260902161951 21 200 0.0 1.6 0.00 0.00 0.00 69 1018.9
20260902161851 21 200 0.0 1.6 0.00 0.00 0.00 69 1018.5
20260902161751 21 193 0.0 0.0 0.00 0.00 0.00 69 1018.7
20260902161652 21 187 0.0 0.0 0.00 0.00 0.00 69 1018.7
20260902161552 21 192 0.0 0.0 0.00 0.00 0.00 69 1018.5
20260902161454 21 192 0.0 0.0 0.00 0.00 0.00 69 1018.7
20260902161438 21 191 0.0 0.0 0.00 0.00 0.00 69 1018.7
20260902161416 21 191 0.0 0.0 0.00 0.00 0.00 69 1018.7
20260902161052 21 191 0.0 0.0 0.00 0.00 0.00 68 1018.5
20260902160952 21 203 0.0 0.0 0.00 0.00 0.00 68 1018.5
20260902160855 22 196 0.0 1.6 0.00 0.00 0.00 67 1018.7
20260902160851 21 199 0.0 0.0 0.00 0.00 0.00 68 1018.4
20260902160829 21 195 0.0 0.0 0.00 0.00 0.00 68 1018.7
20260902160811 21 195 0.0 0.0 0.00 0.00 0.00 68 1018.3
20260902160755 22 187 0.0 0.0 0.00 0.00 0.00 68 1018.8
20260902160520 22 194 0.0 1.6 0.00 0.00 0.00 67 1018.5
20260902160502 22 196 0.0 1.6 0.00 0.00 0.00 67 1018.7
20260902160151 22 196 0.0 1.6 0.00 0.00 0.00 66 1018.7
20260902160051 22 196 0.0 1.6 0.00 0.00 0.00 67 1018.7
20260902155952 22 195 0.0 1.6 0.00 0.00 0.00 66 1018.8
20260902155851 22 192 0.0 1.6 0.00 0.00 0.00 66 1018.7
20260902155752 22 191 0.0 1.6 0.00 0.00 0.00 66 1018.8
20260902155652 22 198 0.0 1.6 0.00 0.00 0.00 66 1018.8
20260902155551 22 196 0.0 1.6 0.00 0.00 0.00 66 1018.7
20260902155451 22 191 0.0 1.6 0.00 0.00 0.00 66 1018.8
20260902155351 22 195 0.0 1.6 0.00 0.00 0.00 66 1018.7
20260902155252 22 196 0.0 1.6 0.00 0.00 0.00 66 1018.5
20260902155229 22 194 0.0 3.2 0.00 0.00 0.00 66 1018.5
20260902155214 22 192 0.0 3.2 0.00 0.00 0.00 66 1018.7
20260902155158 22 199 0.0 3.2 0.00 0.00 0.00 66 1018.9
20260902155142 22 198 0.0 3.2 0.00 0.00 0.00 66 1018.8
20260902154915 22 198 0.0 3.2 0.00 0.00 0.00 66 1018.8
20260902154628 22 190 0.0 3.2 0.00 0.00 0.00 66 1018.7
20260902154612 22 194 0.0 3.2 0.00 0.00 0.00 66 1018.7
20260902154252 22 187 0.0 3.2 0.00 0.00 0.00 65 1018.7
20260902154151 22 174 0.0 0.0 0.00 0.00 0.00 65 1018.8
20260902154119 22 196 0.0 1.6 0.00 0.00 0.00 65 1018.8
20260902154103 22 198 0.0 1.6 0.00 0.00 0.00 65 1018.7
20260902154047 22 184 0.0 1.6 0.00 0.00 0.00 65 1018.5
20260902154025 22 195 0.0 1.6 0.00 0.00 0.00 65 1018.5
20260902154007 22 198 0.0 1.6 0.00 0.00 0.00 65 1018.5
20260902153951 22 190 0.0 1.6 0.00 0.00 0.00 65 1018.7
20260902153715 22 185 0.0 1.6 0.00 0.00 0.00 65 1018.7
20260902153449 22 193 0.0 1.6 0.00 0.00 0.00 65 1018.5
20260902153433 22 187 0.0 1.6 0.00 0.00 0.00 65 1018.9
20260902152851 22 194 0.0 1.6 0.00 0.00 0.00 65 1018.9
20260902152751 22 187 0.0 1.6 0.00 0.00 0.00 65 1018.7
20260902152651 22 192 0.0 1.6 0.00 0.00 0.00 65 1018.5
20260902152552 22 199 0.0 1.6 0.00 0.00 0.00 64 1018.8
20260902152452 22 200 0.0 1.6 0.00 0.00 0.00 64 1018.7
20260902152351 22 195 0.0 1.6 0.00 0.00 0.00 64 1018.8
20260902152338 23 196 0.0 3.2 0.00 0.00 0.00 63 1019.1
20260902152320 22 192 0.0 1.6 0.00 0.00 0.00 64 1018.7
20260902152307 22 192 0.0 1.6 0.00 0.00 0.00 64 1019.1
20260902152247 22 183 0.0 0.0 0.00 0.00 0.00 63 1018.7
20260902152232 23 196 0.0 1.6 0.00 0.00 0.00 63 1018.7
20260902151947 23 200 0.0 1.6 0.00 0.00 0.00 63 1018.9
20260902151929 23 196 0.0 1.6 0.00 0.00 0.00 63 1018.9
20260902151654 23 198 0.0 1.6 0.00 0.00 0.00 63 1018.7
20260902151637 23 201 0.0 1.6 0.00 0.00 0.00 64 1018.8
20260902151409 23 206 0.0 3.2 0.00 0.00 0.00 63 1018.7
20260902151354 23 195 0.0 3.2 0.00 0.00 0.00 63 1018.8
20260902151117 22 197 0.0 3.2 0.00 0.00 0.00 64 1018.7
20260902150851 22 197 0.0 3.2 0.00 0.00 0.00 64 1018.8
20260902150829 22 197 0.0 3.2 0.00 0.00 0.00 64 1018.9
20260902150810 22 194 0.0 3.2 0.00 0.00 0.00 64 1018.8
20260902150754 22 191 0.0 3.2 0.00 0.00 0.00 64 1018.9
20260902150738 23 204 0.0 3.2 0.00 0.00 0.00 64 1019.0
20260902150500 23 196 0.0 3.2 0.00 0.00 0.00 63 1019.1
20260902150150 23 192 0.0 3.2 0.00 0.00 0.00 63 1019.0
20260902150049 23 211 1.6 3.2 0.00 0.00 0.00 63 1018.8
20260902145951 23 196 0.0 1.6 0.00 0.00 0.00 63 1019.1
20260902145850 23 188 0.0 1.6 0.00 0.00 0.00 64 1018.8
20260902145750 23 194 0.0 1.6 0.00 0.00 0.00 63 1019.0
20260902145650 23 190 0.0 1.6 0.00 0.00 0.00 64 1019.1
20260902145627 23 199 0.0 1.6 0.00 0.00 0.00 64 1019.0
20260902145611 23 200 0.0 1.6 0.00 0.00 0.00 64 1019.1
20260902145250 23 194 0.0 3.2 0.00 0.00 0.00 64 1018.9
20260902145150 23 196 0.0 3.2 0.00 0.00 0.00 64 1019.1
20260902145127 23 196 0.0 3.2 0.00 0.00 0.00 64 1018.9
20260902145112 23 134 0.0 3.2 0.00 0.00 0.00 63 1019.0
20260902144751 23 129 0.0 3.2 0.00 0.00 0.00 63 1018.9
20260902144704 23 175 1.6 3.2 0.00 0.00 0.00 63 1018.9
20260902144647 23 196 0.0 3.2 0.00 0.00 0.00 63 1018.9
20260902144631 23 206 0.0 3.2 0.00 0.00 0.00 63 1019.1
20260902144614 23 196 0.0 3.2 0.00 0.00 0.00 63 1018.9
20260902144526 23 186 0.0 3.2 0.00 0.00 0.00 63 1019.1
20260902144454 23 186 0.0 3.2 0.00 0.00 0.00 63 1019.1
20260902144431 23 183 0.0 3.2 0.00 0.00 0.00 64 1018.9
20260902143935 23 184 0.0 3.2 0.00 0.00 0.00 64 1019.1
20260902143913 23 196 0.0 3.2 0.00 0.00 0.00 64 1019.0
20260902143550 23 99 1.6 3.2 0.00 0.00 0.00 63 1018.9
20260902143451 23 132 0.0 3.2 0.00 0.00 0.00 63 1019.0
20260902143426 23 193 0.0 3.2 0.00 0.00 0.00 63 1018.9
20260902143403 23 194 0.0 3.2 0.00 0.00 0.00 63 1019.1
20260902143346 23 199 0.0 3.2 0.00 0.00 0.00 63 1019.1
20260902143331 23 186 0.0 3.2 0.00 0.00 0.00 63 1019.1
20260902142750 23 261 1.6 3.2 0.00 0.00 0.00 62 1019.0
20260902142727 23 210 0.0 3.2 0.00 0.00 0.00 62 1018.9
20260902142711 23 199 0.0 1.6 0.00 0.00 0.00 62 1018.9
20260902142352 23 200 0.0 1.6 0.00 0.00 0.00 62 1019.0
20260902142326 23 196 0.0 1.6 0.00 0.00 0.00 62 1019.1
20260902142310 23 200 0.0 1.6 0.00 0.00 0.00 62 1018.9
20260902141951 23 178 0.0 1.6 0.00 0.00 0.00 62 1019.0
20260902141850 23 191 0.0 1.6 0.00 0.00 0.00 61 1019.2
20260902141751 23 202 0.0 3.2 0.00 0.00 0.00 61 1019.2
20260902141651 23 205 0.0 3.2 0.00 0.00 0.00 60 1018.9
20260902141551 23 201 0.0 3.2 0.00 0.00 0.00 60 1019.0
20260902141451 23 200 0.0 3.2 0.00 0.00 0.00 61 1019.1
20260902141351 23 196 0.0 3.2 0.00 0.00 0.00 61 1019.1
20260902141250 23 201 0.0 3.2 0.00 0.00 0.00 61 1018.9
20260902141217 23 210 0.0 3.2 0.00 0.00 0.00 61 1019.1
20260902141201 23 201 0.0 3.2 0.00 0.00 0.00 60 1019.2
20260902141145 23 202 0.0 3.2 0.00 0.00 0.00 60 1019.0
20260902141129 23 202 0.0 3.2 0.00 0.00 0.00 60 1018.9
20260902141107 23 199 0.0 3.2 0.00 0.00 0.00 60 1019.2
20260902141049 23 200 0.0 3.2 0.00 0.00 0.00 60 1019.1
20260902141034 23 199 0.0 3.2 0.00 0.00 0.00 60 1019.1
20260902141020 23 76 1.6 3.2 0.00 0.00 0.00 61 1019.1
20260902141005 23 202 0.0 3.2 0.00 0.00 0.00 61 1019.0
20260902140943 23 209 0.0 3.2 0.00 0.00 0.00 61 1019.2
20260902140446 23 177 0.0 3.2 0.00 0.00 0.00 62 1019.1
20260902135956 23 196 0.0 3.2 0.00 0.00 0.00 61 1019.0
20260902135938 23 176 0.0 3.2 0.00 0.00 0.00 62 1019.3
20260902135922 23 97 1.6 3.2 0.00 0.00 0.00 63 1019.3
20260902135646 23 143 1.6 3.2 0.00 0.00 0.00 61 1019.1
20260902135623 24 208 1.6 3.2 0.00 0.00 0.00 61 1019.2
20260902135346 23 196 0.0 1.6 0.00 0.00 0.00 61 1019.2
20260902135108 23 149 0.0 3.2 0.00 0.00 0.00 62 1019.2
20260902135051 23 201 0.0 3.2 0.00 0.00 0.00 62 1018.9
20260902134822 23 192 0.0 3.2 0.00 0.00 0.00 62 1019.1
20260902134545 23 201 0.0 3.2 0.00 0.00 0.00 60 1019.2
20260902134247 23 178 0.0 3.2 0.00 0.00 0.00 62 1019.3
20260902134236 23 134 1.6 3.2 0.00 0.00 0.00 62 1019.3
20260902134127 23 219 0.0 3.2 0.00 0.00 0.00 63 1019.3
20260902134048 23 211 0.0 4.8 0.00 0.00 0.00 62 1019.3
20260902133926 23 38 3.2 4.8 0.00 0.00 0.00 62 1019.2
20260902133827 23 206 0.0 4.8 0.00 0.00 0.00 63 1019.3
20260902133746 23 206 0.0 4.8 0.00 0.00 0.00 63 1019.4
20260902133727 23 211 0.0 4.8 0.00 0.00 0.00 62 1019.4
20260902133626 23 202 0.0 4.8 0.00 0.00 0.00 62 1019.5
20260902133526 23 198 0.0 4.8 0.00 0.00 0.00 62 1019.3
20260902133457 23 192 0.0 4.8 0.00 0.00 0.00 62 1019.2
20260902133441 23 198 0.0 4.8 0.00 0.00 0.00 62 1019.5
20260902133428 23 185 0.0 4.8 0.00 0.00 0.00 61 1019.3
20260902133114 23 139 0.0 4.8 0.00 0.00 0.00 62 1019.2
20260902133014 23 54 3.2 4.8 0.00 0.00 0.00 63 1019.3
20260902132914 23 173 1.6 3.2 0.00 0.00 0.00 63 1019.1
20260902132814 23 28 1.6 4.8 0.00 0.00 0.00 61 1019.2
20260902132748 23 178 0.0 4.8 0.00 0.00 0.00 61 1019.3
20260902132714 23 242 0.0 4.8 0.00 0.00 0.00 62 1019.3
20260902132614 23 195 0.0 4.8 0.00 0.00 0.00 62 1019.4
20260902132514 23 201 0.0 4.8 0.00 0.00 0.00 62 1019.0
20260902132414 23 196 0.0 4.8 0.00 0.00 0.00 62 1019.1
20260902132314 23 196 0.0 4.8 0.00 0.00 0.00 62 1019.2
20260902132246 23 200 0.0 4.8 0.00 0.00 0.00 62 1019.0
20260902132231 24 169 0.0 11.3 0.00 0.00 0.00 61 1019.3
20260902132226 24 202 0.0 11.3 0.00 0.00 0.00 61 1019.2
20260902132221 23 195 0.0 4.8 0.00 0.00 0.00 62 1019.0
20260902132206 23 205 0.0 4.8 0.00 0.00 0.00 61 1019.2
20260902132149 23 225 0.0 4.8 0.00 0.00 0.00 61 1019.4
20260902132133 23 198 1.6 4.8 0.00 0.00 0.00 60 1019.2
20260902131901 24 180 1.6 4.8 0.00 0.00 0.00 60 1019.2
20260902131850 24 221 1.6 4.8 0.00 0.00 0.00 60 1019.3
20260902131835 24 202 0.0 4.8 0.00 0.00 0.00 60 1019.4
20260902131819 24 196 0.0 4.8 0.00 0.00 0.00 60 1019.3
20260902131543 24 201 0.0 11.3 0.00 0.00 0.00 60 1019.2
20260902131315 24 203 0.0 11.3 0.00 0.00 0.00 61 1019.3
20260902131259 24 219 1.6 11.3 0.00 0.00 0.00 61 1019.3
20260902131034 24 198 0.0 11.3 0.00 0.00 0.00 61 1019.3
20260902131019 24 233 1.6 11.3 0.00 0.00 0.00 60 1019.3
20260902131003 24 196 1.6 11.3 0.00 0.00 0.00 61 1019.3
20260902130702 24 204 0.0 11.3 0.00 0.00 0.00 62 1019.4
20260902130602 23 206 0.0 11.3 0.00 0.00 0.00 61 1019.3
20260902130542 23 203 0.0 1.6 0.00 0.00 0.00 64 1019.3
20260902130534 23 199 0.0 11.3 0.00 0.00 0.00 61 1019.3
20260902130518 23 223 6.4 11.3 0.00 0.00 0.00 61 1019.2
20260902130503 23 203 0.0 1.6 0.00 0.00 0.00 63 1019.3
20260902130203 23 201 0.0 1.6 0.00 0.00 0.00 64 1019.6
20260902130103 23 188 0.0 1.6 0.00 0.00 0.00 65 1019.5
20260902130043 23 202 0.0 1.6 0.00 0.00 0.00 65 1019.3
20260902130035 23 184 0.0 1.6 0.00 0.00 0.00 65 1019.3
20260902130019 23 199 0.0 1.6 0.00 0.00 0.00 65 1019.5
20260902130003 23 202 0.0 1.6 0.00 0.00 0.00 65 1019.3
20260902125703 23 195 0.0 1.6 0.00 0.00 0.00 65 1019.3
20260902125602 23 196 0.0 1.6 0.00 0.00 0.00 64 1019.3
20260902125502 24 196 0.0 3.2 0.00 0.00 0.00 64 1019.4
20260902125404 24 160 0.0 3.2 0.00 0.00 0.00 63 1019.4
20260902125305 24 162 0.0 3.2 0.00 0.00 0.00 63 1019.4
20260902125246 24 198 0.0 3.2 0.00 0.00 0.00 62 1019.4
20260902125203 24 179 0.0 3.2 0.00 0.00 0.00 63 1019.5
20260902125103 24 202 0.0 3.2 0.00 0.00 0.00 64 1019.5
20260902125033 24 174 0.0 3.2 0.00 0.00 0.00 63 1019.5
20260902125017 25 119 0.0 4.8 0.00 0.00 0.00 63 1019.4
20260902124750 25 212 0.0 4.8 0.00 0.00 0.00 61 1019.3
20260902124650 25 184 0.0 4.8 0.00 0.00 0.00 60 1019.5
20260902124550 25 211 0.0 4.8 0.00 0.00 0.00 60 1019.6
20260902124450 25 207 0.0 4.8 0.00 0.00 0.00 61 1019.6
20260902124433 24 216 0.0 4.8 0.00 0.00 0.00 61 1019.4
20260902124411 24 204 0.0 4.8 0.00 0.00 0.00 62 1019.5
20260902124051 24 173 1.6 4.8 0.00 0.00 0.00 61 1019.4
20260902124032 24 187 1.6 4.8 0.00 0.00 0.00 62 1019.4
20260902124016 24 206 0.0 3.2 0.00 0.00 0.00 61 1019.4
20260902123750 24 200 0.0 3.2 0.00 0.00 0.00 61 1019.6
20260902123650 24 205 0.0 1.6 0.00 0.00 0.00 63 1019.3
20260902123551 24 199 0.0 1.6 0.00 0.00 0.00 64 1019.3
20260902123450 24 196 0.0 1.6 0.00 0.00 0.00 64 1019.6
20260902123350 23 200 0.0 1.6 0.00 0.00 0.00 65 1019.5
20260902123252 23 202 0.0 3.2 0.00 0.00 0.00 64 1019.6
20260902123151 23 203 0.0 3.2 0.00 0.00 0.00 66 1019.5
20260902123050 23 208 0.0 3.2 0.00 0.00 0.00 68 1019.4
20260902122951 23 198 0.0 3.2 0.00 0.00 0.00 66 1019.5
20260902122851 23 201 0.0 3.2 0.00 0.00 0.00 66 1019.6
20260902122828 23 197 0.0 3.2 0.00 0.00 0.00 66 1019.6
20260902122811 23 202 0.0 3.2 0.00 0.00 0.00 66 1019.7
20260902122450 23 187 0.0 3.2 0.00 0.00 0.00 65 1019.7
20260902122350 23 171 1.6 3.2 0.00 0.00 0.00 65 1019.8
20260902122250 23 204 0.0 3.2 0.00 0.00 0.00 65 1019.6
20260902122151 23 201 0.0 3.2 0.00 0.00 0.00 66 1019.7
20260902122054 23 199 0.0 4.8 0.00 0.00 0.00 64 1019.7
20260902122050 23 194 0.0 3.2 0.00 0.00 0.00 66 1019.7
20260902122034 23 200 0.0 3.2 0.00 0.00 0.00 64 1019.6
20260902122018 23 201 0.0 3.2 0.00 0.00 0.00 64 1019.4
20260902122000 23 199 0.0 4.8 0.00 0.00 0.00 64 1019.7
20260902121650 23 206 0.0 4.8 0.00 0.00 0.00 65 1019.9
20260902121551 23 195 0.0 4.8 0.00 0.00 0.00 64 1019.6
20260902121451 23 198 0.0 4.8 0.00 0.00 0.00 64 1019.8
20260902121349 23 200 0.0 4.8 0.00 0.00 0.00 64 1019.8